| time (UTC) | temp F | wind direction | speed MPH | gust MPH | rain 1hr in | rain 24hr in | rain mn in | humidity % | barometer mb |
| 20260510051804 | 65 | 294 | 1.0 | 5.0 | 0.00 | 0.06 | 0.06 | 84 | 1015.4 |
| 20260510051704 | 65 | 296 | 1.0 | 5.0 | 0.00 | 0.06 | 0.06 | 84 | 1015.4 |
| 20260510051604 | 65 | 296 | 1.0 | 5.0 | 0.00 | 0.06 | 0.06 | 84 | 1015.3 |
| 20260510051504 | 65 | 296 | 1.0 | 5.0 | 0.00 | 0.06 | 0.06 | 84 | 1015.4 |
| 20260510051404 | 65 | 296 | 1.0 | 5.0 | 0.00 | 0.06 | 0.06 | 84 | 1015.4 |
| 20260510051304 | 65 | 295 | 1.0 | 5.0 | 0.00 | 0.06 | 0.06 | 84 | 1015.4 |
| 20260510051204 | 65 | 296 | 1.0 | 5.0 | 0.00 | 0.06 | 0.06 | 84 | 1015.4 |
| 20260510051104 | 65 | 296 | 1.0 | 5.0 | 0.00 | 0.06 | 0.06 | 84 | 1015.2 |
| 20260510051004 | 65 | 296 | 1.0 | 5.0 | 0.02 | 0.06 | 0.06 | 84 | 1015.2 |
| 20260510050904 | 65 | 297 | 1.0 | 4.0 | 0.02 | 0.06 | 0.06 | 84 | 1015.1 |
| 20260510050804 | 65 | 296 | 1.0 | 4.0 | 0.02 | 0.06 | 0.06 | 84 | 1015.0 |
| 20260510050704 | 65 | 293 | 1.0 | 4.0 | 0.02 | 0.06 | 0.06 | 84 | 1014.9 |
| 20260510050604 | 65 | 295 | 1.0 | 4.0 | 0.02 | 0.06 | 0.06 | 84 | 1014.9 |
| 20260510050504 | 65 | 295 | 1.0 | 4.0 | 0.02 | 0.06 | 0.06 | 84 | 1014.9 |
| 20260510050404 | 65 | 294 | 1.0 | 4.0 | 0.02 | 0.06 | 0.06 | 84 | 1014.9 |
| 20260510050304 | 65 | 296 | 1.0 | 4.0 | 0.02 | 0.06 | 0.06 | 84 | 1014.9 |
| 20260510050204 | 65 | 295 | 1.0 | 4.0 | 0.02 | 0.06 | 0.06 | 84 | 1014.8 |
| 20260510050104 | 65 | 294 | 1.0 | 4.0 | 0.02 | 0.06 | 0.06 | 84 | 1014.7 |
| 20260510050004 | 65 | 294 | 2.0 | 5.0 | 0.02 | 0.06 | 0.06 | 84 | 1014.5 |
| 20260510045904 | 65 | 294 | 2.0 | 5.0 | 0.02 | 0.06 | 0.06 | 84 | 1014.4 |
| 20260510045804 | 65 | 293 | 2.0 | 5.0 | 0.02 | 0.06 | 0.06 | 84 | 1014.4 |
| 20260510045704 | 65 | 293 | 2.0 | 5.0 | 0.02 | 0.06 | 0.06 | 84 | 1014.2 |
| 20260510045604 | 65 | 293 | 2.0 | 5.0 | 0.02 | 0.06 | 0.06 | 84 | 1014.1 |
| 20260510045504 | 65 | 293 | 2.0 | 5.0 | 0.02 | 0.06 | 0.06 | 84 | 1014.1 |
| 20260510045404 | 65 | 293 | 2.0 | 5.0 | 0.02 | 0.06 | 0.06 | 84 | 1014.1 |
| 20260510045306 | 65 | 292 | 2.0 | 5.0 | 0.02 | 0.06 | 0.06 | 84 | 1014.1 |
| 20260510045204 | 65 | 292 | 2.0 | 5.0 | 0.02 | 0.06 | 0.06 | 84 | 1014.1 |
| 20260510045104 | 65 | 292 | 1.0 | 5.0 | 0.02 | 0.06 | 0.06 | 84 | 1014.2 |
| 20260510045004 | 65 | 292 | 1.0 | 4.0 | 0.02 | 0.06 | 0.06 | 84 | 1014.2 |
| 20260510044904 | 65 | 292 | 1.0 | 4.0 | 0.02 | 0.06 | 0.06 | 84 | 1014.2 |
| 20260510044804 | 65 | 292 | 1.0 | 4.0 | 0.02 | 0.06 | 0.06 | 84 | 1014.3 |
| 20260510044704 | 65 | 292 | 1.0 | 4.0 | 0.02 | 0.06 | 0.06 | 84 | 1014.3 |
| 20260510044603 | 65 | 291 | 1.0 | 3.0 | 0.02 | 0.06 | 0.06 | 84 | 1014.4 |
| 20260510044504 | 65 | 291 | 0.0 | 2.0 | 0.02 | 0.06 | 0.06 | 84 | 1014.4 |
| 20260510044404 | 65 | 290 | 0.0 | 2.0 | 0.02 | 0.06 | 0.06 | 84 | 1014.4 |
| 20260510044304 | 65 | 290 | 0.0 | 2.0 | 0.02 | 0.06 | 0.06 | 84 | 1014.4 |
| 20260510044204 | 65 | 290 | 0.0 | 2.0 | 0.02 | 0.06 | 0.06 | 84 | 1014.4 |
| 20260510044104 | 65 | 290 | 0.0 | 2.0 | 0.02 | 0.06 | 0.06 | 84 | 1014.4 |
| 20260510044004 | 65 | 290 | 0.0 | 2.0 | 0.02 | 0.06 | 0.06 | 84 | 1014.4 |
| 20260510043904 | 65 | 292 | 0.0 | 2.0 | 0.02 | 0.06 | 0.06 | 84 | 1014.4 |
| 20260510043803 | 65 | 292 | 0.0 | 2.0 | 0.02 | 0.06 | 0.06 | 83 | 1014.3 |
| 20260510043704 | 65 | 292 | 0.0 | 1.0 | 0.02 | 0.06 | 0.06 | 84 | 1014.3 |
| 20260510043604 | 65 | 292 | 0.0 | 1.0 | 0.02 | 0.06 | 0.06 | 83 | 1014.3 |
| 20260510043504 | 65 | 292 | 0.0 | 1.0 | 0.02 | 0.06 | 0.06 | 83 | 1014.5 |
| 20260510043403 | 65 | 292 | 0.0 | 1.0 | 0.02 | 0.06 | 0.06 | 83 | 1014.6 |
| 20260510043304 | 65 | 292 | 0.0 | 1.0 | 0.02 | 0.06 | 0.06 | 83 | 1014.7 |
| 20260510043204 | 65 | 292 | 0.0 | 1.0 | 0.02 | 0.06 | 0.06 | 83 | 1014.8 |
| 20260510043104 | 65 | 0 | 0.0 | 0.0 | 0.02 | 0.06 | 0.06 | 83 | 1014.9 |
| 20260510043004 | 65 | 0 | 0.0 | 0.0 | 0.02 | 0.06 | 0.06 | 83 | 1015.0 |
| 20260510042904 | 65 | 292 | 0.0 | 2.0 | 0.02 | 0.06 | 0.06 | 83 | 1015.0 |
| 20260510042804 | 65 | 292 | 0.0 | 2.0 | 0.02 | 0.06 | 0.06 | 83 | 1014.9 |
| 20260510042704 | 65 | 292 | 0.0 | 2.0 | 0.02 | 0.06 | 0.06 | 83 | 1014.9 |
| 20260510042603 | 65 | 292 | 0.0 | 2.0 | 0.02 | 0.06 | 0.06 | 83 | 1014.9 |
| 20260510042503 | 65 | 292 | 0.0 | 2.0 | 0.02 | 0.06 | 0.06 | 83 | 1014.8 |
| 20260510042403 | 65 | 292 | 0.0 | 2.0 | 0.02 | 0.06 | 0.06 | 83 | 1014.9 |
| 20260510042306 | 65 | 292 | 0.0 | 2.0 | 0.02 | 0.06 | 0.06 | 83 | 1014.8 |
| 20260510042203 | 65 | 292 | 0.0 | 2.0 | 0.02 | 0.06 | 0.06 | 83 | 1014.9 |
| 20260510042103 | 65 | 292 | 0.0 | 2.0 | 0.02 | 0.06 | 0.06 | 83 | 1015.0 |
| 20260510042004 | 65 | 292 | 0.0 | 2.0 | 0.02 | 0.06 | 0.06 | 83 | 1015.2 |
| 20260510041903 | 65 | 0 | 0.0 | 0.0 | 0.02 | 0.06 | 0.06 | 83 | 1015.5 |
| 20260510041804 | 65 | 0 | 0.0 | 0.0 | 0.02 | 0.06 | 0.06 | 83 | 1015.5 |
| 20260510041703 | 65 | 0 | 0.0 | 0.0 | 0.02 | 0.06 | 0.06 | 83 | 1015.6 |
| 20260510041603 | 65 | 0 | 0.0 | 0.0 | 0.02 | 0.06 | 0.06 | 83 | 1015.7 |
| 20260510041503 | 65 | 0 | 0.0 | 0.0 | 0.02 | 0.06 | 0.06 | 83 | 1015.8 |
| 20260510041403 | 65 | 0 | 0.0 | 0.0 | 0.02 | 0.06 | 0.06 | 83 | 1016.1 |
| 20260510041303 | 65 | 0 | 0.0 | 0.0 | 0.02 | 0.06 | 0.06 | 83 | 1016.2 |
| 20260510041203 | 65 | 0 | 0.0 | 0.0 | 0.02 | 0.06 | 0.06 | 83 | 1016.3 |
| 20260510041103 | 65 | 0 | 0.0 | 0.0 | 0.00 | 0.04 | 0.04 | 83 | 1016.5 |
| 20260510041003 | 65 | 0 | 0.0 | 0.0 | 0.00 | 0.04 | 0.04 | 83 | 1016.4 |
| 20260510040903 | 65 | 292 | 0.0 | 1.0 | 0.00 | 0.04 | 0.04 | 83 | 1016.4 |
| 20260510040803 | 65 | 292 | 0.0 | 1.0 | 0.02 | 0.04 | 0.04 | 83 | 1016.4 |
| 20260510040703 | 65 | 292 | 0.0 | 2.0 | 0.02 | 0.04 | 0.04 | 83 | 1016.4 |
| 20260510040603 | 65 | 292 | 0.0 | 2.0 | 0.02 | 0.04 | 0.04 | 83 | 1016.4 |
| 20260510040503 | 65 | 292 | 0.0 | 2.0 | 0.02 | 0.04 | 0.04 | 83 | 1016.4 |
| 20260510040403 | 65 | 292 | 0.0 | 2.0 | 0.02 | 0.04 | 0.04 | 83 | 1016.3 |
| 20260510040303 | 65 | 292 | 0.0 | 2.0 | 0.02 | 0.04 | 0.04 | 83 | 1016.2 |
| 20260510040203 | 65 | 292 | 0.0 | 2.0 | 0.02 | 0.04 | 0.04 | 83 | 1016.2 |
| 20260510040103 | 65 | 292 | 0.0 | 2.0 | 0.02 | 0.04 | 0.04 | 82 | 1016.2 |
| 20260510040003 | 65 | 292 | 0.0 | 2.0 | 0.02 | 0.04 | 0.04 | 82 | 1016.2 |
| 20260510035903 | 65 | 292 | 0.0 | 2.0 | 0.02 | 0.04 | 0.04 | 82 | 1016.2 |
| 20260510035803 | 65 | 292 | 0.0 | 3.0 | 0.02 | 0.04 | 0.04 | 82 | 1016.1 |
| 20260510035703 | 65 | 296 | 0.0 | 3.0 | 0.02 | 0.04 | 0.04 | 82 | 1016.0 |
| 20260510035603 | 65 | 295 | 0.0 | 3.0 | 0.02 | 0.04 | 0.04 | 82 | 1016.2 |
| 20260510035503 | 65 | 294 | 1.0 | 4.0 | 0.02 | 0.04 | 0.04 | 82 | 1016.2 |
| 20260510035403 | 65 | 293 | 1.0 | 4.0 | 0.02 | 0.04 | 0.04 | 82 | 1016.3 |
| 20260510035306 | 65 | 293 | 1.0 | 4.0 | 0.02 | 0.04 | 0.04 | 82 | 1016.4 |
| 20260510035203 | 65 | 293 | 1.0 | 4.0 | 0.02 | 0.04 | 0.04 | 82 | 1016.4 |
| 20260510035103 | 65 | 293 | 1.0 | 4.0 | 0.02 | 0.04 | 0.04 | 82 | 1016.5 |
| 20260510035003 | 65 | 293 | 1.0 | 4.0 | 0.02 | 0.04 | 0.04 | 82 | 1016.5 |
| 20260510034903 | 65 | 293 | 1.0 | 4.0 | 0.02 | 0.04 | 0.04 | 81 | 1016.4 |
| 20260510034803 | 65 | 295 | 1.0 | 4.0 | 0.02 | 0.04 | 0.04 | 81 | 1016.4 |
| 20260510034703 | 65 | 295 | 1.0 | 4.0 | 0.02 | 0.04 | 0.04 | 81 | 1016.4 |
| 20260510034603 | 65 | 296 | 1.0 | 4.0 | 0.02 | 0.04 | 0.04 | 81 | 1016.4 |
| 20260510034503 | 65 | 297 | 1.0 | 4.0 | 0.02 | 0.04 | 0.04 | 81 | 1016.5 |
| 20260510034403 | 65 | 300 | 0.0 | 3.0 | 0.02 | 0.04 | 0.04 | 81 | 1016.5 |
| 20260510034303 | 65 | 303 | 0.0 | 3.0 | 0.02 | 0.04 | 0.04 | 81 | 1016.6 |
| 20260510034203 | 65 | 303 | 0.0 | 3.0 | 0.02 | 0.04 | 0.04 | 81 | 1016.7 |
| 20260510034103 | 65 | 308 | 0.0 | 3.0 | 0.02 | 0.04 | 0.04 | 81 | 1016.8 |
| 20260510034003 | 65 | 309 | 0.0 | 3.0 | 0.02 | 0.04 | 0.04 | 81 | 1017.1 |
| 20260510033903 | 65 | 304 | 0.0 | 3.0 | 0.02 | 0.04 | 0.04 | 81 | 1017.0 |
| 20260510033803 | 65 | 297 | 0.0 | 2.0 | 0.02 | 0.04 | 0.04 | 81 | 1017.2 |
| 20260510033703 | 65 | 294 | 0.0 | 2.0 | 0.02 | 0.04 | 0.04 | 81 | 1017.2 |
| 20260510033603 | 65 | 294 | 0.0 | 2.0 | 0.02 | 0.04 | 0.04 | 81 | 1017.2 |
| 20260510033503 | 65 | 295 | 0.0 | 3.0 | 0.02 | 0.04 | 0.04 | 81 | 1017.0 |
| 20260510033403 | 65 | 294 | 1.0 | 4.0 | 0.02 | 0.04 | 0.04 | 81 | 1016.8 |
| 20260510033303 | 65 | 293 | 1.0 | 4.0 | 0.02 | 0.04 | 0.04 | 81 | 1016.8 |
| 20260510033203 | 65 | 294 | 1.0 | 6.0 | 0.02 | 0.04 | 0.04 | 81 | 1016.6 |
| 20260510033103 | 64 | 294 | 1.0 | 6.0 | 0.02 | 0.04 | 0.04 | 81 | 1016.6 |
| 20260510033003 | 64 | 294 | 1.0 | 6.0 | 0.02 | 0.04 | 0.04 | 81 | 1016.7 |
| 20260510032903 | 64 | 295 | 1.0 | 6.0 | 0.02 | 0.04 | 0.04 | 81 | 1016.7 |
| 20260510032803 | 64 | 295 | 1.0 | 6.0 | 0.04 | 0.04 | 0.04 | 81 | 1016.7 |
| 20260510032703 | 64 | 295 | 1.0 | 6.0 | 0.04 | 0.04 | 0.04 | 81 | 1016.7 |
| 20260510032603 | 64 | 294 | 1.0 | 6.0 | 0.04 | 0.04 | 0.04 | 81 | 1016.8 |
| 20260510032503 | 64 | 294 | 1.0 | 6.0 | 0.04 | 0.04 | 0.04 | 81 | 1016.7 |
| 20260510032403 | 64 | 295 | 0.0 | 6.0 | 0.04 | 0.04 | 0.04 | 81 | 1016.8 |
| 20260510032306 | 64 | 295 | 1.0 | 6.0 | 0.04 | 0.04 | 0.04 | 81 | 1016.8 |
| 20260510032203 | 64 | 299 | 0.0 | 4.0 | 0.04 | 0.04 | 0.04 | 81 | 1016.8 |
| 20260510032103 | 64 | 299 | 1.0 | 4.0 | 0.04 | 0.04 | 0.04 | 81 | 1016.7 |
| 20260510032003 | 64 | 299 | 1.0 | 4.0 | 0.04 | 0.04 | 0.04 | 81 | 1016.8 |
| 20260510031903 | 64 | 298 | 1.0 | 4.0 | 0.04 | 0.04 | 0.04 | 81 | 1016.8 |
| 20260510031803 | 65 | 298 | 1.0 | 4.0 | 0.04 | 0.04 | 0.04 | 81 | 1016.9 |
| 20260510031703 | 65 | 298 | 1.0 | 4.0 | 0.04 | 0.04 | 0.04 | 81 | 1016.9 |
| 20260510031603 | 65 | 298 | 1.0 | 4.0 | 0.04 | 0.04 | 0.04 | 81 | 1016.9 |
| 20260510031503 | 65 | 297 | 1.0 | 4.0 | 0.04 | 0.04 | 0.04 | 81 | 1016.8 |
| 20260510031403 | 65 | 298 | 1.0 | 5.0 | 0.04 | 0.04 | 0.04 | 80 | 1016.8 |
| 20260510031303 | 65 | 299 | 1.0 | 5.0 | 0.04 | 0.04 | 0.04 | 80 | 1016.8 |
| 20260510031203 | 65 | 298 | 1.0 | 5.0 | 0.04 | 0.04 | 0.04 | 80 | 1016.8 |
| 20260510031103 | 65 | 298 | 1.0 | 5.0 | 0.04 | 0.04 | 0.04 | 80 | 1016.9 |
| 20260510031003 | 65 | 298 | 1.0 | 5.0 | 0.04 | 0.04 | 0.04 | 80 | 1016.9 |
| 20260510030903 | 65 | 298 | 1.0 | 5.0 | 0.02 | 0.02 | 0.02 | 80 | 1016.9 |
| 20260510030803 | 65 | 297 | 1.0 | 5.0 | 0.02 | 0.02 | 0.02 | 80 | 1016.9 |
| 20260510030703 | 65 | 297 | 1.0 | 5.0 | 0.02 | 0.02 | 0.02 | 80 | 1017.0 |
| 20260510030603 | 65 | 296 | 1.0 | 5.0 | 0.02 | 0.02 | 0.02 | 80 | 1017.1 |
| 20260510030503 | 65 | 296 | 1.0 | 5.0 | 0.02 | 0.02 | 0.02 | 79 | 1017.1 |
| 20260510030403 | 65 | 296 | 1.0 | 5.0 | 0.02 | 0.02 | 0.02 | 79 | 1017.2 |
| 20260510030303 | 65 | 294 | 1.0 | 5.0 | 0.02 | 0.02 | 0.02 | 79 | 1017.4 |
| 20260510030203 | 65 | 293 | 1.0 | 3.0 | 0.02 | 0.02 | 0.02 | 79 | 1017.5 |
| 20260510030103 | 65 | 292 | 1.0 | 3.0 | 0.02 | 0.02 | 0.02 | 79 | 1017.7 |
| 20260510030003 | 65 | 292 | 1.0 | 3.0 | 0.02 | 0.02 | 0.02 | 79 | 1017.7 |
| 20260510025903 | 65 | 292 | 1.0 | 3.0 | 0.02 | 0.02 | 0.02 | 79 | 1017.7 |
| 20260510025803 | 65 | 292 | 1.0 | 3.0 | 0.02 | 0.02 | 0.02 | 79 | 1017.6 |
| 20260510025703 | 65 | 293 | 1.0 | 3.0 | 0.02 | 0.02 | 0.02 | 79 | 1017.8 |
| 20260510025603 | 65 | 293 | 0.0 | 3.0 | 0.02 | 0.02 | 0.02 | 79 | 1017.9 |
| 20260510025503 | 65 | 293 | 0.0 | 2.0 | 0.02 | 0.02 | 0.02 | 79 | 1017.9 |
| 20260510025403 | 65 | 292 | 0.0 | 2.0 | 0.02 | 0.02 | 0.02 | 79 | 1017.9 |
| 20260510025306 | 65 | 292 | 0.0 | 2.0 | 0.02 | 0.02 | 0.02 | 79 | 1017.8 |
| 20260510025203 | 65 | 292 | 0.0 | 1.0 | 0.02 | 0.02 | 0.02 | 79 | 1017.7 |
| 20260510025103 | 65 | 0 | 0.0 | 0.0 | 0.02 | 0.02 | 0.02 | 79 | 1017.7 |
| 20260510025003 | 65 | 0 | 0.0 | 0.0 | 0.02 | 0.02 | 0.02 | 79 | 1017.5 |
| 20260510024903 | 65 | 0 | 0.0 | 0.0 | 0.02 | 0.02 | 0.02 | 79 | 1017.5 |
| 20260510024803 | 65 | 0 | 0.0 | 0.0 | 0.02 | 0.02 | 0.02 | 79 | 1017.5 |
| 20260510024704 | 65 | 0 | 0.0 | 0.0 | 0.02 | 0.02 | 0.02 | 78 | 1017.4 |
| 20260510024604 | 66 | 0 | 0.0 | 0.0 | 0.02 | 0.02 | 0.02 | 78 | 1017.3 |
| 20260510024504 | 66 | 0 | 0.0 | 0.0 | 0.02 | 0.02 | 0.02 | 78 | 1017.3 |
| 20260510024404 | 65 | 0 | 0.0 | 0.0 | 0.02 | 0.02 | 0.02 | 78 | 1017.2 |
| 20260510024304 | 66 | 0 | 0.0 | 0.0 | 0.02 | 0.02 | 0.02 | 78 | 1017.2 |
| 20260510024204 | 66 | 0 | 0.0 | 0.0 | 0.02 | 0.02 | 0.02 | 78 | 1017.3 |
| 20260510024104 | 66 | 0 | 0.0 | 0.0 | 0.02 | 0.02 | 0.02 | 78 | 1017.3 |
| 20260510024004 | 66 | 0 | 0.0 | 0.0 | 0.02 | 0.02 | 0.02 | 78 | 1017.4 |
| 20260510023904 | 66 | 0 | 0.0 | 0.0 | 0.02 | 0.02 | 0.02 | 78 | 1017.6 |
| 20260510023804 | 66 | 0 | 0.0 | 0.0 | 0.02 | 0.02 | 0.02 | 78 | 1017.5 |
| 20260510023704 | 66 | 0 | 0.0 | 0.0 | 0.02 | 0.02 | 0.02 | 78 | 1017.6 |
| 20260510023604 | 66 | 0 | 0.0 | 0.0 | 0.02 | 0.02 | 0.02 | 77 | 1017.6 |
| 20260510023504 | 66 | 0 | 0.0 | 0.0 | 0.02 | 0.02 | 0.02 | 77 | 1017.7 |
| 20260510023404 | 66 | 0 | 0.0 | 0.0 | 0.02 | 0.02 | 0.02 | 77 | 1017.7 |
| 20260510023304 | 66 | 0 | 0.0 | 0.0 | 0.02 | 0.02 | 0.02 | 77 | 1017.7 |
| 20260510023204 | 66 | 0 | 0.0 | 0.0 | 0.02 | 0.02 | 0.02 | 77 | 1017.7 |
| 20260510023104 | 66 | 0 | 0.0 | 0.0 | 0.02 | 0.02 | 0.02 | 77 | 1017.8 |
| 20260510023004 | 66 | 0 | 0.0 | 0.0 | 0.02 | 0.02 | 0.02 | 77 | 1017.9 |
| 20260510022904 | 66 | 315 | 0.0 | 1.0 | 0.02 | 0.02 | 0.02 | 77 | 1017.9 |
| 20260510022804 | 66 | 315 | 0.0 | 1.0 | 0.00 | 0.00 | 0.00 | 76 | 1017.9 |
| 20260510022704 | 66 | 315 | 0.0 | 1.0 | 0.00 | 0.00 | 0.00 | 76 | 1017.9 |
| 20260510022604 | 66 | 315 | 0.0 | 1.0 | 0.00 | 0.00 | 0.00 | 76 | 1018.0 |
| 20260510022504 | 66 | 315 | 0.0 | 1.0 | 0.00 | 0.00 | 0.00 | 76 | 1017.9 |
| 20260510022404 | 66 | 62 | 0.0 | 4.0 | 0.00 | 0.00 | 0.00 | 76 | 1018.0 |
| 20260510022306 | 66 | 62 | 0.0 | 4.0 | 0.00 | 0.00 | 0.00 | 76 | 1018.1 |
| 20260510022204 | 66 | 62 | 0.0 | 4.0 | 0.00 | 0.00 | 0.00 | 76 | 1018.3 |
| 20260510022104 | 66 | 46 | 0.0 | 4.0 | 0.00 | 0.00 | 0.00 | 75 | 1018.3 |
| 20260510022004 | 66 | 46 | 0.0 | 4.0 | 0.00 | 0.00 | 0.00 | 75 | 1018.3 |
| 20260510021904 | 66 | 55 | 0.0 | 4.0 | 0.00 | 0.00 | 0.00 | 75 | 1018.4 |
| 20260510021804 | 66 | 71 | 0.0 | 4.0 | 0.00 | 0.00 | 0.00 | 75 | 1018.3 |
| 20260510021704 | 66 | 71 | 0.0 | 4.0 | 0.00 | 0.00 | 0.00 | 75 | 1018.3 |
| 20260510021604 | 66 | 71 | 0.0 | 4.0 | 0.00 | 0.00 | 0.00 | 75 | 1018.4 |
| 20260510021504 | 66 | 66 | 0.0 | 4.0 | 0.00 | 0.00 | 0.00 | 75 | 1018.4 |
| 20260510021404 | 67 | 302 | 0.0 | 2.0 | 0.00 | 0.00 | 0.00 | 75 | 1018.4 |
| 20260510021304 | 67 | 302 | 0.0 | 2.0 | 0.00 | 0.00 | 0.00 | 74 | 1018.4 |
| 20260510021204 | 67 | 302 | 0.0 | 2.0 | 0.00 | 0.00 | 0.00 | 74 | 1018.4 |
| 20260510021104 | 67 | 306 | 0.0 | 2.0 | 0.00 | 0.00 | 0.00 | 74 | 1018.4 |
| 20260510021004 | 67 | 306 | 0.0 | 2.0 | 0.00 | 0.00 | 0.00 | 74 | 1018.5 |
| 20260510020904 | 67 | 306 | 0.0 | 2.0 | 0.00 | 0.00 | 0.00 | 74 | 1018.4 |
| 20260510020804 | 67 | 51 | 0.0 | 2.0 | 0.00 | 0.00 | 0.00 | 73 | 1018.5 |
| 20260510020704 | 67 | 51 | 0.0 | 2.0 | 0.00 | 0.00 | 0.00 | 73 | 1018.4 |
| 20260510020604 | 67 | 80 | 0.0 | 2.0 | 0.00 | 0.00 | 0.00 | 73 | 1018.4 |
| 20260510020504 | 67 | 101 | 0.0 | 4.0 | 0.00 | 0.00 | 0.00 | 73 | 1018.4 |
| 20260510020404 | 67 | 102 | 0.0 | 4.0 | 0.00 | 0.00 | 0.00 | 73 | 1018.3 |
| 20260510020304 | 67 | 102 | 0.0 | 4.0 | 0.00 | 0.00 | 0.00 | 73 | 1018.3 |
| 20260510020204 | 67 | 102 | 0.0 | 4.0 | 0.00 | 0.00 | 0.00 | 72 | 1018.3 |
| 20260510020104 | 67 | 102 | 0.0 | 4.0 | 0.00 | 0.00 | 0.00 | 72 | 1018.2 |
| 20260510020004 | 67 | 102 | 0.0 | 4.0 | 0.00 | 0.00 | 0.00 | 72 | 1018.2 |
| 20260510015904 | 67 | 102 | 0.0 | 4.0 | 0.00 | 0.00 | 0.00 | 72 | 1018.2 |
| 20260510015804 | 67 | 107 | 0.0 | 4.0 | 0.00 | 0.00 | 0.00 | 72 | 1018.3 |
| 20260510015704 | 67 | 107 | 0.0 | 4.0 | 0.00 | 0.00 | 0.00 | 72 | 1018.3 |
| 20260510015603 | 67 | 112 | 0.0 | 4.0 | 0.00 | 0.00 | 0.00 | 71 | 1018.3 |
| 20260510015504 | 67 | 0 | 0.0 | 0.0 | 0.00 | 0.00 | 0.00 | 71 | 1018.2 |
| 20260510015404 | 67 | 0 | 0.0 | 0.0 | 0.00 | 0.00 | 0.00 | 71 | 1018.2 |
| 20260510015306 | 67 | 0 | 0.0 | 0.0 | 0.00 | 0.00 | 0.00 | 71 | 1018.0 |
| 20260510015204 | 67 | 0 | 0.0 | 0.0 | 0.00 | 0.00 | 0.00 | 71 | 1017.9 |
| 20260510015103 | 67 | 0 | 0.0 | 0.0 | 0.00 | 0.00 | 0.00 | 71 | 1017.9 |
| 20260510015003 | 67 | 0 | 0.0 | 0.0 | 0.00 | 0.00 | 0.00 | 71 | 1017.9 |
| 20260510014903 | 67 | 0 | 0.0 | 0.0 | 0.00 | 0.00 | 0.00 | 71 | 1017.8 |
| 20260510014803 | 67 | 0 | 0.0 | 0.0 | 0.00 | 0.00 | 0.00 | 71 | 1017.7 |
| 20260510014703 | 67 | 0 | 0.0 | 0.0 | 0.00 | 0.00 | 0.00 | 71 | 1017.6 |
| 20260510014603 | 67 | 0 | 0.0 | 0.0 | 0.00 | 0.00 | 0.00 | 71 | 1017.7 |
| 20260510014503 | 67 | 0 | 0.0 | 0.0 | 0.00 | 0.00 | 0.00 | 71 | 1017.5 |
| 20260510014403 | 67 | 0 | 0.0 | 0.0 | 0.00 | 0.00 | 0.00 | 71 | 1017.6 |
| 20260510014303 | 67 | 0 | 0.0 | 0.0 | 0.00 | 0.00 | 0.00 | 71 | 1017.5 |
| 20260510014203 | 67 | 0 | 0.0 | 0.0 | 0.00 | 0.00 | 0.00 | 71 | 1017.5 |
| 20260510014103 | 67 | 0 | 0.0 | 0.0 | 0.00 | 0.00 | 0.00 | 71 | 1017.5 |
| 20260510014003 | 67 | 0 | 0.0 | 0.0 | 0.00 | 0.00 | 0.00 | 71 | 1017.4 |
| 20260510013903 | 67 | 292 | 0.0 | 2.0 | 0.00 | 0.00 | 0.00 | 71 | 1017.4 |
| 20260510013803 | 67 | 299 | 0.0 | 2.0 | 0.00 | 0.00 | 0.00 | 71 | 1017.3 |
| 20260510013703 | 67 | 299 | 0.0 | 2.0 | 0.00 | 0.00 | 0.00 | 72 | 1017.3 |
| 20260510013603 | 67 | 299 | 0.0 | 2.0 | 0.00 | 0.00 | 0.00 | 71 | 1017.2 |
| 20260510013503 | 67 | 299 | 0.0 | 2.0 | 0.00 | 0.00 | 0.00 | 71 | 1017.2 |
| 20260510013403 | 67 | 299 | 0.0 | 2.0 | 0.00 | 0.00 | 0.00 | 71 | 1017.0 |
| 20260510013303 | 67 | 299 | 0.0 | 2.0 | 0.00 | 0.00 | 0.00 | 71 | 1017.0 |
| 20260510013203 | 67 | 299 | 0.0 | 2.0 | 0.00 | 0.00 | 0.00 | 71 | 1016.9 |
| 20260510013103 | 67 | 308 | 0.0 | 2.0 | 0.00 | 0.00 | 0.00 | 71 | 1016.9 |
| 20260510013003 | 67 | 308 | 0.0 | 2.0 | 0.00 | 0.00 | 0.00 | 71 | 1016.9 |
| 20260510012903 | 67 | 53 | 0.0 | 2.0 | 0.00 | 0.00 | 0.00 | 71 | 1016.8 |
| 20260510012803 | 67 | 104 | 0.0 | 4.0 | 0.00 | 0.00 | 0.00 | 71 | 1016.8 |
| 20260510012703 | 67 | 106 | 0.0 | 4.0 | 0.00 | 0.00 | 0.00 | 71 | 1016.8 |
| 20260510012603 | 67 | 106 | 0.0 | 4.0 | 0.00 | 0.00 | 0.00 | 71 | 1016.8 |
| 20260510012503 | 67 | 106 | 0.0 | 4.0 | 0.00 | 0.00 | 0.00 | 71 | 1016.9 |
| 20260510012403 | 67 | 106 | 0.0 | 4.0 | 0.00 | 0.00 | 0.00 | 71 | 1016.9 |
| 20260510012306 | 67 | 106 | 0.0 | 4.0 | 0.00 | 0.00 | 0.00 | 71 | 1016.9 |
| 20260510012203 | 67 | 106 | 0.0 | 4.0 | 0.00 | 0.00 | 0.00 | 71 | 1016.9 |
| 20260510012103 | 67 | 107 | 0.0 | 4.0 | 0.00 | 0.00 | 0.00 | 71 | 1016.9 |
| 20260510012003 | 67 | 107 | 0.0 | 4.0 | 0.00 | 0.00 | 0.00 | 71 | 1016.8 |
| 20260510011903 | 68 | 107 | 0.0 | 4.0 | 0.00 | 0.00 | 0.00 | 71 | 1016.9 |
| 20260510011803 | 68 | 123 | 0.0 | 2.0 | 0.00 | 0.00 | 0.00 | 71 | 1016.8 |
| 20260510011703 | 68 | 270 | 0.0 | 2.0 | 0.00 | 0.00 | 0.00 | 71 | 1016.8 |
| 20260510011603 | 68 | 262 | 0.0 | 2.0 | 0.00 | 0.00 | 0.00 | 71 | 1016.8 |
| 20260510011503 | 68 | 254 | 0.0 | 2.0 | 0.00 | 0.00 | 0.00 | 71 | 1016.9 |
| 20260510011403 | 68 | 254 | 0.0 | 2.0 | 0.00 | 0.00 | 0.00 | 71 | 1016.9 |
| 20260510011303 | 68 | 254 | 0.0 | 2.0 | 0.00 | 0.00 | 0.00 | 71 | 1016.8 |
| 20260510011203 | 68 | 199 | 0.0 | 2.0 | 0.00 | 0.00 | 0.00 | 71 | 1016.8 |
| 20260510011103 | 68 | 149 | 0.0 | 2.0 | 0.00 | 0.00 | 0.00 | 71 | 1016.6 |
| 20260510011003 | 68 | 149 | 0.0 | 2.0 | 0.00 | 0.00 | 0.00 | 71 | 1016.5 |
| 20260510010903 | 68 | 149 | 0.0 | 2.0 | 0.00 | 0.00 | 0.00 | 71 | 1016.5 |
| 20260510010803 | 68 | 120 | 0.0 | 2.0 | 0.00 | 0.00 | 0.00 | 71 | 1016.4 |
| 20260510010703 | 68 | 115 | 0.0 | 2.0 | 0.00 | 0.00 | 0.00 | 70 | 1016.4 |
| 20260510010603 | 68 | 116 | 0.0 | 2.0 | 0.00 | 0.00 | 0.00 | 70 | 1016.3 |
| 20260510010503 | 68 | 114 | 0.0 | 3.0 | 0.00 | 0.00 | 0.00 | 70 | 1016.3 |
| 20260510010403 | 68 | 121 | 0.0 | 3.0 | 0.00 | 0.00 | 0.00 | 70 | 1016.3 |
| 20260510010303 | 68 | 123 | 0.0 | 3.0 | 0.00 | 0.00 | 0.00 | 70 | 1016.2 |
| 20260510010203 | 68 | 305 | 0.0 | 4.0 | 0.00 | 0.00 | 0.00 | 70 | 1016.2 |
| 20260510010103 | 68 | 297 | 0.0 | 4.0 | 0.00 | 0.00 | 0.00 | 70 | 1016.3 |
| 20260510010003 | 68 | 297 | 0.0 | 4.0 | 0.00 | 0.00 | 0.00 | 70 | 1016.3 |
| 20260510005903 | 68 | 296 | 0.0 | 4.0 | 0.00 | 0.00 | 0.00 | 70 | 1016.2 |
| 20260510005803 | 68 | 301 | 0.0 | 4.0 | 0.00 | 0.00 | 0.00 | 70 | 1016.1 |
| 20260510005703 | 68 | 302 | 0.0 | 4.0 | 0.00 | 0.00 | 0.00 | 70 | 1015.9 |
| 20260510005603 | 68 | 302 | 0.0 | 4.0 | 0.00 | 0.00 | 0.00 | 70 | 1015.9 |
| 20260510005503 | 68 | 303 | 0.0 | 4.0 | 0.00 | 0.00 | 0.00 | 70 | 1015.9 |
| 20260510005403 | 68 | 33 | 1.0 | 7.0 | 0.00 | 0.00 | 0.00 | 70 | 1016.0 |
| 20260510005306 | 68 | 70 | 1.0 | 7.0 | 0.00 | 0.00 | 0.00 | 70 | 1016.0 |
| 20260510005203 | 68 | 93 | 1.0 | 7.0 | 0.00 | 0.00 | 0.00 | 70 | 1016.0 |
| 20260510005103 | 68 | 96 | 1.0 | 7.0 | 0.00 | 0.00 | 0.00 | 70 | 1016.0 |
| 20260510005003 | 68 | 95 | 1.0 | 7.0 | 0.00 | 0.00 | 0.00 | 70 | 1016.1 |
| 20260510004903 | 67 | 94 | 1.0 | 7.0 | 0.00 | 0.00 | 0.00 | 71 | 1016.0 |
| 20260510004803 | 67 | 90 | 1.0 | 7.0 | 0.00 | 0.00 | 0.00 | 71 | 1016.0 |
| 20260510004703 | 67 | 90 | 1.0 | 7.0 | 0.00 | 0.00 | 0.00 | 71 | 1016.0 |
| 20260510004603 | 67 | 90 | 1.0 | 7.0 | 0.00 | 0.00 | 0.00 | 71 | 1015.9 |
| 20260510004503 | 67 | 103 | 1.0 | 7.0 | 0.00 | 0.00 | 0.00 | 71 | 1015.9 |
| 20260510004403 | 67 | 103 | 0.0 | 5.0 | 0.00 | 0.00 | 0.00 | 71 | 1016.2 |
| 20260510004303 | 67 | 292 | 0.0 | 4.0 | 0.00 | 0.00 | 0.00 | 72 | 1016.3 |
| 20260510004203 | 67 | 297 | 0.0 | 4.0 | 0.00 | 0.00 | 0.00 | 72 | 1016.4 |
| 20260510004103 | 67 | 290 | 0.0 | 4.0 | 0.00 | 0.00 | 0.00 | 72 | 1016.2 |
| 20260510004003 | 67 | 290 | 0.0 | 4.0 | 0.00 | 0.00 | 0.00 | 72 | 1016.1 |
| 20260510003903 | 67 | 255 | 0.0 | 3.0 | 0.00 | 0.00 | 0.00 | 72 | 1016.0 |
| 20260510003803 | 67 | 145 | 0.0 | 3.0 | 0.00 | 0.00 | 0.00 | 72 | 1015.9 |
| 20260510003703 | 67 | 135 | 0.0 | 3.0 | 0.00 | 0.00 | 0.00 | 72 | 1015.6 |
| 20260510003603 | 67 | 136 | 0.0 | 3.0 | 0.00 | 0.00 | 0.00 | 72 | 1015.3 |
| 20260510003503 | 67 | 138 | 0.0 | 3.0 | 0.00 | 0.00 | 0.00 | 72 | 1015.1 |
| 20260510003403 | 67 | 136 | 0.0 | 3.0 | 0.00 | 0.00 | 0.00 | 72 | 1015.1 |
| 20260510003303 | 67 | 142 | 0.0 | 3.0 | 0.00 | 0.00 | 0.00 | 72 | 1015.1 |
| 20260510003203 | 67 | 136 | 0.0 | 3.0 | 0.00 | 0.00 | 0.00 | 72 | 1015.0 |
| 20260510003103 | 67 | 136 | 0.0 | 4.0 | 0.00 | 0.00 | 0.00 | 72 | 1014.9 |
| 20260510003004 | 67 | 136 | 0.0 | 4.0 | 0.00 | 0.00 | 0.00 | 72 | 1015.0 |
| 20260510002903 | 67 | 139 | 1.0 | 4.0 | 0.00 | 0.00 | 0.00 | 72 | 1014.9 |
| 20260510002803 | 67 | 125 | 1.0 | 4.0 | 0.00 | 0.00 | 0.00 | 72 | 1014.7 |
| 20260510002703 | 67 | 129 | 1.0 | 4.0 | 0.00 | 0.00 | 0.00 | 72 | 1014.8 |
| 20260510002603 | 66 | 123 | 0.0 | 4.0 | 0.00 | 0.00 | 0.00 | 72 | 1014.7 |
| 20260510002503 | 66 | 122 | 0.0 | 4.0 | 0.00 | 0.00 | 0.00 | 72 | 1014.7 |
| 20260510002403 | 66 | 117 | 0.0 | 4.0 | 0.00 | 0.00 | 0.00 | 72 | 1014.6 |
| 20260510002306 | 66 | 116 | 1.0 | 4.0 | 0.00 | 0.00 | 0.00 | 72 | 1014.7 |
| 20260510002203 | 66 | 118 | 0.0 | 4.0 | 0.00 | 0.00 | 0.00 | 72 | 1014.7 |
| 20260510002103 | 66 | 112 | 0.0 | 4.0 | 0.00 | 0.00 | 0.00 | 72 | 1014.6 |
| 20260510002003 | 66 | 90 | 0.0 | 4.0 | 0.00 | 0.00 | 0.00 | 72 | 1014.5 |
| 20260510001903 | 66 | 98 | 0.0 | 4.0 | 0.00 | 0.00 | 0.00 | 72 | 1014.6 |
| 20260510001803 | 66 | 3 | 0.0 | 3.0 | 0.00 | 0.00 | 0.00 | 72 | 1014.6 |
| 20260510001703 | 66 | 87 | 0.0 | 3.0 | 0.00 | 0.00 | 0.00 | 72 | 1014.5 |
| 20260510001603 | 66 | 103 | 0.0 | 3.0 | 0.00 | 0.00 | 0.00 | 72 | 1014.5 |
| 20260510001503 | 66 | 103 | 0.0 | 3.0 | 0.00 | 0.00 | 0.00 | 72 | 1014.5 |
| 20260510001403 | 66 | 85 | 0.0 | 3.0 | 0.00 | 0.00 | 0.00 | 73 | 1014.5 |
| 20260510001304 | 66 | 296 | 0.0 | 3.0 | 0.00 | 0.00 | 0.00 | 73 | 1014.5 |
| 20260510001204 | 66 | 296 | 0.0 | 3.0 | 0.00 | 0.00 | 0.00 | 73 | 1014.4 |
| 20260510001104 | 66 | 296 | 0.0 | 3.0 | 0.00 | 0.00 | 0.00 | 73 | 1014.5 |
| 20260510001004 | 66 | 97 | 0.0 | 2.0 | 0.00 | 0.00 | 0.00 | 73 | 1014.5 |
| 20260510000904 | 66 | 139 | 0.0 | 2.0 | 0.00 | 0.00 | 0.00 | 73 | 1014.5 |
| 20260510000804 | 66 | 136 | 0.0 | 2.0 | 0.00 | 0.00 | 0.00 | 73 | 1014.6 |
| 20260510000704 | 66 | 143 | 0.0 | 2.0 | 0.00 | 0.00 | 0.00 | 73 | 1014.5 |
| 20260510000604 | 66 | 179 | 0.0 | 2.0 | 0.00 | 0.00 | 0.00 | 73 | 1014.5 |
| 20260510000504 | 66 | 179 | 0.0 | 2.0 | 0.00 | 0.00 | 0.00 | 73 | 1014.5 |
| 20260510000404 | 66 | 147 | 0.0 | 2.0 | 0.00 | 0.00 | 0.00 | 73 | 1014.5 |
| 20260510000304 | 66 | 147 | 0.0 | 2.0 | 0.00 | 0.00 | 0.00 | 73 | 1014.5 |
| 20260510000204 | 66 | 147 | 0.0 | 2.0 | 0.00 | 0.00 | 0.00 | 73 | 1014.5 |
| 20260510000104 | 66 | 128 | 0.0 | 2.0 | 0.00 | 0.00 | 0.00 | 73 | 1014.5 |
| 20260510000004 | 66 | 128 | 0.0 | 2.0 | 0.00 | 0.00 | 0.00 | 73 | 1014.5 |
| 20260509235904 | 66 | 74 | 0.0 | 2.0 | 0.00 | 0.00 | 0.00 | 73 | 1014.5 |
| 20260509235804 | 66 | 72 | 0.0 | 1.0 | 0.00 | 0.00 | 0.00 | 73 | 1014.5 |
| 20260509235704 | 66 | 309 | 0.0 | 4.0 | 0.00 | 0.00 | 0.00 | 73 | 1014.5 |
| 20260509235604 | 66 | 301 | 0.0 | 4.0 | 0.00 | 0.00 | 0.00 | 73 | 1014.4 |
| 20260509235504 | 66 | 302 | 0.0 | 4.0 | 0.00 | 0.00 | 0.00 | 73 | 1014.4 |
| 20260509235404 | 66 | 302 | 0.0 | 4.0 | 0.00 | 0.00 | 0.00 | 73 | 1014.4 |
| 20260509235306 | 66 | 302 | 0.0 | 4.0 | 0.00 | 0.00 | 0.00 | 73 | 1014.4 |
| 20260509235204 | 66 | 302 | 0.0 | 4.0 | 0.00 | 0.00 | 0.00 | 73 | 1014.4 |
| 20260509235104 | 66 | 298 | 0.0 | 4.0 | 0.00 | 0.00 | 0.00 | 73 | 1014.4 |
| 20260509235004 | 66 | 299 | 0.0 | 4.0 | 0.00 | 0.00 | 0.00 | 73 | 1014.4 |
| 20260509234904 | 66 | 299 | 0.0 | 4.0 | 0.00 | 0.00 | 0.00 | 73 | 1014.4 |
| 20260509234804 | 66 | 296 | 0.0 | 4.0 | 0.00 | 0.00 | 0.00 | 73 | 1014.5 |
| 20260509234704 | 66 | 294 | 0.0 | 2.0 | 0.00 | 0.00 | 0.00 | 73 | 1014.4 |
| 20260509234604 | 66 | 288 | 0.0 | 3.0 | 0.00 | 0.00 | 0.00 | 73 | 1014.4 |
| 20260509234504 | 66 | 286 | 0.0 | 3.0 | 0.00 | 0.00 | 0.00 | 73 | 1014.4 |
| 20260509234404 | 66 | 286 | 0.0 | 3.0 | 0.00 | 0.00 | 0.00 | 73 | 1014.4 |
| 20260509234304 | 66 | 286 | 0.0 | 3.0 | 0.00 | 0.00 | 0.00 | 73 | 1014.5 |
| 20260509234204 | 66 | 284 | 0.0 | 3.0 | 0.00 | 0.00 | 0.00 | 73 | 1014.5 |
| 20260509234104 | 66 | 284 | 0.0 | 3.0 | 0.00 | 0.00 | 0.00 | 73 | 1014.5 |
| 20260509234004 | 66 | 281 | 0.0 | 3.0 | 0.00 | 0.00 | 0.00 | 73 | 1014.5 |
| 20260509233904 | 66 | 278 | 0.0 | 5.0 | 0.00 | 0.00 | 0.00 | 73 | 1014.5 |
| 20260509233804 | 66 | 279 | 0.0 | 5.0 | 0.00 | 0.00 | 0.00 | 73 | 1014.5 |
| 20260509233704 | 66 | 278 | 0.0 | 5.0 | 0.00 | 0.00 | 0.00 | 73 | 1014.5 |
| 20260509233604 | 66 | 276 | 0.0 | 5.0 | 0.00 | 0.00 | 0.00 | 73 | 1014.6 |
| 20260509233504 | 66 | 275 | 0.0 | 5.0 | 0.00 | 0.00 | 0.00 | 73 | 1014.5 |
| 20260509233404 | 66 | 275 | 0.0 | 5.0 | 0.00 | 0.00 | 0.00 | 73 | 1014.6 |
| 20260509233304 | 66 | 278 | 0.0 | 5.0 | 0.00 | 0.00 | 0.00 | 73 | 1014.6 |
| 20260509233204 | 66 | 278 | 0.0 | 5.0 | 0.00 | 0.00 | 0.00 | 73 | 1014.7 |
| 20260509233104 | 66 | 284 | 0.0 | 5.0 | 0.00 | 0.00 | 0.00 | 73 | 1014.8 |
| 20260509233004 | 66 | 260 | 0.0 | 5.0 | 0.00 | 0.00 | 0.00 | 73 | 1014.7 |
| 20260509232904 | 66 | 254 | 0.0 | 4.0 | 0.00 | 0.00 | 0.00 | 73 | 1014.7 |
| 20260509232804 | 66 | 248 | 0.0 | 4.0 | 0.00 | 0.00 | 0.00 | 73 | 1014.9 |
| 20260509232704 | 66 | 267 | 0.0 | 4.0 | 0.00 | 0.00 | 0.00 | 73 | 1014.8 |
| 20260509232604 | 66 | 281 | 1.0 | 4.0 | 0.00 | 0.00 | 0.00 | 73 | 1014.9 |
| 20260509232504 | 66 | 279 | 1.0 | 4.0 | 0.00 | 0.00 | 0.00 | 73 | 1015.0 |
| 20260509232404 | 66 | 279 | 1.0 | 4.0 | 0.00 | 0.00 | 0.00 | 73 | 1015.0 |
| 20260509232306 | 66 | 279 | 1.0 | 4.0 | 0.00 | 0.00 | 0.00 | 74 | 1015.0 |
| 20260509232204 | 66 | 279 | 1.0 | 4.0 | 0.00 | 0.00 | 0.00 | 73 | 1015.0 |
| 20260509232104 | 66 | 278 | 1.0 | 4.0 | 0.00 | 0.00 | 0.00 | 74 | 1015.2 |
| 20260509232003 | 66 | 295 | 0.0 | 4.0 | 0.00 | 0.00 | 0.00 | 74 | 1015.2 |
| 20260509231903 | 66 | 297 | 0.0 | 4.0 | 0.00 | 0.00 | 0.00 | 74 | 1015.1 |
| 20260509231803 | 66 | 297 | 1.0 | 4.0 | 0.00 | 0.00 | 0.00 | 74 | 1015.1 |
| 20260509231703 | 66 | 298 | 0.0 | 4.0 | 0.00 | 0.00 | 0.00 | 74 | 1015.1 |
| 20260509231603 | 66 | 297 | 0.0 | 3.0 | 0.00 | 0.00 | 0.00 | 74 | 1015.3 |
| 20260509231503 | 66 | 299 | 0.0 | 3.0 | 0.00 | 0.00 | 0.00 | 74 | 1015.3 |
| 20260509231403 | 66 | 299 | 1.0 | 3.0 | 0.00 | 0.00 | 0.00 | 74 | 1015.3 |
| 20260509231303 | 66 | 302 | 1.0 | 3.0 | 0.00 | 0.00 | 0.00 | 74 | 1015.4 |
| 20260509231204 | 65 | 301 | 1.0 | 3.0 | 0.00 | 0.00 | 0.00 | 74 | 1015.4 |
| 20260509231004 | 65 | 303 | 1.0 | 5.0 | 0.00 | 0.00 | 0.00 | 74 | 1015.5 |
| 20260509230904 | 65 | 300 | 1.0 | 5.0 | 0.00 | 0.00 | 0.00 | 74 | 1015.5 |
| 20260509230804 | 65 | 299 | 1.0 | 5.0 | 0.00 | 0.00 | 0.00 | 74 | 1015.5 |
| 20260509230704 | 65 | 298 | 1.0 | 5.0 | 0.00 | 0.00 | 0.00 | 74 | 1015.5 |
| 20260509230604 | 65 | 299 | 1.0 | 5.0 | 0.00 | 0.00 | 0.00 | 74 | 1015.6 |
| 20260509230504 | 65 | 293 | 1.0 | 3.0 | 0.00 | 0.00 | 0.00 | 74 | 1015.6 |
| 20260509230404 | 65 | 292 | 0.0 | 3.0 | 0.00 | 0.00 | 0.00 | 74 | 1015.6 |
| 20260509230304 | 65 | 292 | 0.0 | 3.0 | 0.00 | 0.00 | 0.00 | 74 | 1015.6 |
| 20260509230204 | 65 | 290 | 1.0 | 3.0 | 0.00 | 0.00 | 0.00 | 74 | 1015.6 |
| 20260509230104 | 65 | 284 | 0.0 | 3.0 | 0.00 | 0.00 | 0.00 | 74 | 1015.6 |
| 20260509230004 | 65 | 279 | 0.0 | 3.0 | 0.00 | 0.00 | 0.00 | 73 | 1015.8 |
| 20260509225904 | 65 | 280 | 0.0 | 3.0 | 0.00 | 0.00 | 0.00 | 74 | 1015.7 |
| 20260509225804 | 65 | 287 | 0.0 | 4.0 | 0.00 | 0.00 | 0.00 | 73 | 1015.6 |
| 20260509225704 | 65 | 283 | 0.0 | 4.0 | 0.00 | 0.00 | 0.00 | 73 | 1015.7 |
| 20260509225604 | 65 | 287 | 1.0 | 5.0 | 0.00 | 0.00 | 0.00 | 73 | 1015.6 |
| 20260509225504 | 65 | 291 | 1.0 | 5.0 | 0.00 | 0.00 | 0.00 | 73 | 1015.7 |
| 20260509225404 | 65 | 291 | 1.0 | 5.0 | 0.00 | 0.00 | 0.00 | 73 | 1015.7 |
| 20260509225306 | 65 | 291 | 1.0 | 5.0 | 0.00 | 0.00 | 0.00 | 73 | 1015.7 |
| 20260509225204 | 65 | 294 | 1.0 | 5.0 | 0.00 | 0.00 | 0.00 | 73 | 1015.8 |
| 20260509225104 | 65 | 292 | 1.0 | 5.0 | 0.00 | 0.00 | 0.00 | 73 | 1015.8 |
| 20260509225004 | 65 | 294 | 1.0 | 5.0 | 0.00 | 0.00 | 0.00 | 73 | 1015.8 |
| 20260509224904 | 65 | 297 | 1.0 | 5.0 | 0.00 | 0.00 | 0.00 | 73 | 1015.8 |
| 20260509224804 | 65 | 296 | 1.0 | 5.0 | 0.00 | 0.00 | 0.00 | 73 | 1015.8 |
| 20260509224704 | 65 | 299 | 1.0 | 5.0 | 0.00 | 0.00 | 0.00 | 73 | 1015.8 |
| 20260509224604 | 65 | 303 | 1.0 | 4.0 | 0.00 | 0.00 | 0.00 | 73 | 1015.8 |
| 20260509224504 | 65 | 310 | 0.0 | 4.0 | 0.00 | 0.00 | 0.00 | 73 | 1015.9 |
| 20260509224404 | 65 | 310 | 0.0 | 4.0 | 0.00 | 0.00 | 0.00 | 73 | 1015.8 |
| 20260509224304 | 65 | 324 | 0.0 | 4.0 | 0.00 | 0.00 | 0.00 | 73 | 1015.9 |
| 20260509224204 | 65 | 334 | 0.0 | 4.0 | 0.00 | 0.00 | 0.00 | 73 | 1015.9 |
| 20260509224104 | 65 | 27 | 0.0 | 4.0 | 0.00 | 0.00 | 0.00 | 73 | 1016.0 |
| 20260509224004 | 65 | 82 | 0.0 | 4.0 | 0.00 | 0.00 | 0.00 | 73 | 1015.9 |
| 20260509223904 | 65 | 77 | 0.0 | 2.0 | 0.00 | 0.00 | 0.00 | 73 | 1015.9 |
| 20260509223804 | 65 | 89 | 0.0 | 3.0 | 0.00 | 0.00 | 0.00 | 73 | 1016.0 |
| 20260509223704 | 65 | 89 | 0.0 | 3.0 | 0.00 | 0.00 | 0.00 | 73 | 1015.9 |
| 20260509223604 | 65 | 93 | 0.0 | 3.0 | 0.00 | 0.00 | 0.00 | 73 | 1016.0 |
| 20260509223504 | 65 | 93 | 0.0 | 3.0 | 0.00 | 0.00 | 0.00 | 73 | 1016.0 |
| 20260509223404 | 65 | 95 | 0.0 | 3.0 | 0.00 | 0.00 | 0.00 | 73 | 1016.0 |
| 20260509223304 | 65 | 104 | 0.0 | 3.0 | 0.00 | 0.00 | 0.00 | 73 | 1016.0 |
| 20260509223204 | 65 | 104 | 0.0 | 3.0 | 0.00 | 0.00 | 0.00 | 73 | 1016.0 |
| 20260509223103 | 65 | 100 | 0.0 | 3.0 | 0.00 | 0.00 | 0.00 | 73 | 1016.1 |
| 20260509223003 | 65 | 90 | 0.0 | 3.0 | 0.00 | 0.00 | 0.00 | 73 | 1016.0 |
| 20260509222904 | 65 | 46 | 0.0 | 3.0 | 0.00 | 0.00 | 0.00 | 73 | 1016.0 |
| 20260509222803 | 65 | 327 | 0.0 | 2.0 | 0.00 | 0.00 | 0.00 | 73 | 1016.0 |
| 20260509222704 | 65 | 75 | 0.0 | 5.0 | 0.00 | 0.00 | 0.00 | 73 | 1016.0 |
| 20260509222603 | 65 | 95 | 0.0 | 5.0 | 0.00 | 0.00 | 0.00 | 73 | 1016.1 |
| 20260509222503 | 65 | 104 | 1.0 | 5.0 | 0.00 | 0.00 | 0.00 | 73 | 1016.0 |
| 20260509222403 | 65 | 105 | 0.0 | 5.0 | 0.00 | 0.00 | 0.00 | 73 | 1016.0 |
| 20260509222306 | 65 | 105 | 0.0 | 5.0 | 0.00 | 0.00 | 0.00 | 74 | 1016.0 |
| 20260509222203 | 65 | 103 | 1.0 | 5.0 | 0.00 | 0.00 | 0.00 | 74 | 1016.0 |
| 20260509222103 | 65 | 105 | 1.0 | 5.0 | 0.00 | 0.00 | 0.00 | 74 | 1016.0 |
| 20260509222004 | 65 | 112 | 1.0 | 5.0 | 0.00 | 0.00 | 0.00 | 74 | 1016.1 |
| 20260509221903 | 65 | 112 | 1.0 | 5.0 | 0.00 | 0.00 | 0.00 | 74 | 1016.0 |
| 20260509221803 | 65 | 113 | 1.0 | 5.0 | 0.00 | 0.00 | 0.00 | 74 | 1016.0 |
| 20260509221703 | 65 | 115 | 1.0 | 4.0 | 0.00 | 0.00 | 0.00 | 74 | 1016.0 |
| 20260509221603 | 65 | 116 | 1.0 | 4.0 | 0.00 | 0.00 | 0.00 | 74 | 1015.9 |
| 20260509221503 | 65 | 118 | 0.0 | 3.0 | 0.00 | 0.00 | 0.00 | 74 | 1016.0 |
| 20260509221403 | 65 | 113 | 0.0 | 3.0 | 0.00 | 0.00 | 0.00 | 74 | 1016.0 |
| 20260509221303 | 65 | 113 | 0.0 | 3.0 | 0.00 | 0.00 | 0.00 | 74 | 1016.0 |
| 20260509221203 | 65 | 115 | 0.0 | 3.0 | 0.00 | 0.00 | 0.00 | 74 | 1016.0 |
| 20260509221103 | 65 | 117 | 1.0 | 3.0 | 0.00 | 0.00 | 0.00 | 74 | 1016.0 |
| 20260509221003 | 65 | 111 | 0.0 | 3.0 | 0.00 | 0.00 | 0.00 | 74 | 1016.1 |
| 20260509220903 | 65 | 112 | 0.0 | 3.0 | 0.00 | 0.00 | 0.00 | 74 | 1016.0 |
| 20260509220803 | 65 | 108 | 0.0 | 3.0 | 0.00 | 0.00 | 0.00 | 74 | 1016.0 |
| 20260509220703 | 65 | 314 | 1.0 | 4.0 | 0.00 | 0.00 | 0.00 | 74 | 1016.0 |
| 20260509220603 | 65 | 269 | 1.0 | 4.0 | 0.00 | 0.00 | 0.00 | 74 | 1016.1 |
| 20260509220503 | 65 | 151 | 1.0 | 4.0 | 0.00 | 0.00 | 0.00 | 74 | 1016.0 |
| 20260509220403 | 65 | 164 | 1.0 | 4.0 | 0.00 | 0.00 | 0.00 | 74 | 1016.1 |
| 20260509220303 | 65 | 257 | 0.0 | 4.0 | 0.00 | 0.00 | 0.00 | 74 | 1016.1 |
| 20260509220203 | 65 | 250 | 0.0 | 4.0 | 0.00 | 0.00 | 0.00 | 74 | 1016.1 |
| 20260509220103 | 65 | 259 | 0.0 | 4.0 | 0.00 | 0.00 | 0.00 | 74 | 1016.1 |
| 20260509220041 | 65 | 271 | 0.0 | 4.0 | 0.00 | 0.00 | 0.00 | 74 | 1016.2 |
| 20260509215903 | 65 | 281 | 0.0 | 4.0 | 0.00 | 0.00 | 0.00 | 74 | 1016.1 |
| 20260509215803 | 65 | 283 | 0.0 | 4.0 | 0.00 | 0.00 | 0.00 | 74 | 1016.2 |
| 20260509215703 | 65 | 183 | 0.0 | 3.0 | 0.00 | 0.00 | 0.00 | 74 | 1016.2 |
| 20260509215603 | 65 | 185 | 0.0 | 3.0 | 0.00 | 0.00 | 0.00 | 74 | 1016.2 |
| 20260509215503 | 65 | 289 | 0.0 | 3.0 | 0.00 | 0.00 | 0.00 | 74 | 1016.1 |
| 20260509215403 | 65 | 289 | 0.0 | 3.0 | 0.00 | 0.00 | 0.00 | 74 | 1016.2 |
| 20260509215306 | 65 | 282 | 0.0 | 3.0 | 0.00 | 0.00 | 0.00 | 74 | 1016.1 |
| 20260509215203 | 65 | 291 | 0.0 | 3.0 | 0.00 | 0.00 | 0.00 | 74 | 1016.1 |
| 20260509215103 | 65 | 267 | 0.0 | 3.0 | 0.00 | 0.00 | 0.00 | 74 | 1016.2 |
| 20260509215003 | 65 | 276 | 0.0 | 3.0 | 0.00 | 0.00 | 0.00 | 74 | 1016.2 |
| 20260509214903 | 65 | 278 | 0.0 | 3.0 | 0.00 | 0.00 | 0.00 | 74 | 1016.2 |
| 20260509214803 | 66 | 141 | 0.0 | 3.0 | 0.00 | 0.00 | 0.00 | 74 | 1016.1 |
| 20260509214703 | 66 | 124 | 0.0 | 4.0 | 0.00 | 0.00 | 0.00 | 74 | 1016.1 |
| 20260509214603 | 66 | 112 | 0.0 | 4.0 | 0.00 | 0.00 | 0.00 | 74 | 1016.1 |
| 20260509214503 | 66 | 109 | 0.0 | 4.0 | 0.00 | 0.00 | 0.00 | 74 | 1016.1 |
| 20260509214403 | 65 | 109 | 0.0 | 4.0 | 0.00 | 0.00 | 0.00 | 74 | 1016.1 |
| 20260509214303 | 66 | 109 | 0.0 | 4.0 | 0.00 | 0.00 | 0.00 | 74 | 1016.1 |
| 20260509214203 | 66 | 113 | 0.0 | 4.0 | 0.00 | 0.00 | 0.00 | 74 | 1016.1 |
| 20260509214103 | 66 | 103 | 0.0 | 4.0 | 0.00 | 0.00 | 0.00 | 74 | 1016.2 |
| 20260509214003 | 66 | 102 | 0.0 | 4.0 | 0.00 | 0.00 | 0.00 | 74 | 1016.1 |
| 20260509213903 | 66 | 102 | 0.0 | 4.0 | 0.00 | 0.00 | 0.00 | 74 | 1016.1 |
| 20260509213803 | 66 | 93 | 0.0 | 4.0 | 0.00 | 0.00 | 0.00 | 74 | 1016.1 |
| 20260509213703 | 66 | 88 | 0.0 | 3.0 | 0.00 | 0.00 | 0.00 | 74 | 1016.1 |
| 20260509213603 | 66 | 89 | 0.0 | 3.0 | 0.00 | 0.00 | 0.00 | 74 | 1016.1 |
| 20260509213503 | 66 | 99 | 0.0 | 3.0 | 0.00 | 0.00 | 0.00 | 74 | 1016.1 |
| 20260509213403 | 66 | 89 | 0.0 | 3.0 | 0.00 | 0.00 | 0.00 | 74 | 1016.2 |
| 20260509213303 | 66 | 89 | 0.0 | 3.0 | 0.00 | 0.00 | 0.00 | 74 | 1016.1 |
| 20260509213203 | 66 | 89 | 0.0 | 3.0 | 0.00 | 0.00 | 0.00 | 74 | 1016.1 |
| 20260509213103 | 66 | 116 | 0.0 | 3.0 | 0.00 | 0.00 | 0.00 | 74 | 1016.2 |
| 20260509213003 | 66 | 116 | 0.0 | 3.0 | 0.00 | 0.00 | 0.00 | 74 | 1016.2 |
| 20260509212903 | 66 | 115 | 0.0 | 3.0 | 0.00 | 0.00 | 0.00 | 74 | 1016.1 |
| 20260509212803 | 66 | 117 | 0.0 | 3.0 | 0.00 | 0.00 | 0.00 | 74 | 1016.2 |
| 20260509212703 | 66 | 201 | 0.0 | 3.0 | 0.00 | 0.00 | 0.00 | 74 | 1016.2 |
| 20260509212603 | 66 | 23 | 0.0 | 3.0 | 0.00 | 0.00 | 0.00 | 74 | 1016.2 |
| 20260509212503 | 66 | 274 | 0.0 | 3.0 | 0.00 | 0.00 | 0.00 | 74 | 1016.2 |
| 20260509212403 | 66 | 274 | 0.0 | 3.0 | 0.00 | 0.00 | 0.00 | 74 | 1016.2 |
| 20260509212305 | 66 | 274 | 0.0 | 3.0 | 0.00 | 0.00 | 0.00 | 74 | 1016.2 |
| 20260509212203 | 66 | 274 | 0.0 | 3.0 | 0.00 | 0.00 | 0.00 | 74 | 1016.2 |
| 20260509212103 | 66 | 271 | 0.0 | 3.0 | 0.00 | 0.00 | 0.00 | 74 | 1016.1 |
| 20260509212003 | 66 | 282 | 0.0 | 3.0 | 0.00 | 0.00 | 0.00 | 74 | 1016.1 |
| 20260509211903 | 66 | 282 | 0.0 | 3.0 | 0.00 | 0.00 | 0.00 | 74 | 1016.1 |
| 20260509211803 | 66 | 274 | 0.0 | 3.0 | 0.00 | 0.00 | 0.00 | 74 | 1016.3 |
| 20260509211703 | 66 | 355 | 0.0 | 3.0 | 0.00 | 0.00 | 0.00 | 74 | 1016.2 |
| 20260509211603 | 66 | 57 | 0.0 | 3.0 | 0.00 | 0.00 | 0.00 | 74 | 1016.3 |
| 20260509211503 | 66 | 27 | 0.0 | 3.0 | 0.00 | 0.00 | 0.00 | 74 | 1016.2 |
| 20260509211403 | 66 | 55 | 0.0 | 3.0 | 0.00 | 0.00 | 0.00 | 74 | 1016.2 |
| 20260509211303 | 66 | 56 | 0.0 | 3.0 | 0.00 | 0.00 | 0.00 | 74 | 1016.2 |
| 20260509211203 | 66 | 71 | 0.0 | 3.0 | 0.00 | 0.00 | 0.00 | 74 | 1016.2 |
| 20260509211103 | 66 | 79 | 0.0 | 3.0 | 0.00 | 0.00 | 0.00 | 74 | 1016.2 |
| 20260509211003 | 66 | 87 | 0.0 | 3.0 | 0.00 | 0.00 | 0.00 | 74 | 1016.2 |
| 20260509210903 | 66 | 87 | 0.0 | 3.0 | 0.00 | 0.00 | 0.00 | 74 | 1016.2 |
| 20260509210803 | 66 | 73 | 0.0 | 3.0 | 0.00 | 0.00 | 0.00 | 74 | 1016.2 |
| 20260509210703 | 66 | 99 | 0.0 | 4.0 | 0.00 | 0.00 | 0.00 | 74 | 1016.2 |
| 20260509210603 | 66 | 94 | 0.0 | 4.0 | 0.00 | 0.00 | 0.00 | 74 | 1016.2 |
| 20260509210503 | 66 | 94 | 0.0 | 4.0 | 0.00 | 0.00 | 0.00 | 74 | 1016.2 |
| 20260509210403 | 66 | 101 | 0.0 | 4.0 | 0.00 | 0.00 | 0.00 | 74 | 1016.2 |
| 20260509210303 | 66 | 103 | 0.0 | 4.0 | 0.00 | 0.00 | 0.00 | 74 | 1016.2 |
| 20260509210203 | 66 | 98 | 0.0 | 4.0 | 0.00 | 0.00 | 0.00 | 74 | 1016.2 |
| 20260509210003 | 66 | 100 | 0.0 | 4.0 | 0.00 | 0.00 | 0.00 | 74 | 1016.3 |
| 20260509205903 | 66 | 110 | 0.0 | 4.0 | 0.00 | 0.00 | 0.00 | 74 | 1016.3 |
| 20260509205803 | 66 | 127 | 0.0 | 4.0 | 0.00 | 0.00 | 0.00 | 74 | 1016.4 |
| 20260509205703 | 66 | 161 | 0.0 | 3.0 | 0.00 | 0.00 | 0.00 | 74 | 1016.4 |
| 20260509205603 | 66 | 161 | 0.0 | 3.0 | 0.00 | 0.00 | 0.00 | 74 | 1016.4 |
| 20260509205503 | 66 | 136 | 0.0 | 3.0 | 0.00 | 0.00 | 0.00 | 74 | 1016.4 |
| 20260509205403 | 66 | 131 | 0.0 | 3.0 | 0.00 | 0.00 | 0.00 | 74 | 1016.4 |
| 20260509205307 | 66 | 131 | 0.0 | 3.0 | 0.00 | 0.00 | 0.00 | 74 | 1016.4 |
| 20260509205204 | 66 | 122 | 0.0 | 3.0 | 0.00 | 0.00 | 0.00 | 74 | 1016.3 |
| 20260509205104 | 66 | 116 | 0.0 | 3.0 | 0.00 | 0.00 | 0.00 | 74 | 1016.4 |
| 20260509205004 | 66 | 118 | 0.0 | 3.0 | 0.00 | 0.00 | 0.00 | 74 | 1016.4 |
| 20260509204904 | 66 | 114 | 0.0 | 3.0 | 0.00 | 0.00 | 0.00 | 74 | 1016.4 |
| 20260509204804 | 66 | 102 | 0.0 | 3.0 | 0.00 | 0.00 | 0.00 | 75 | 1016.4 |
| 20260509204704 | 66 | 107 | 0.0 | 3.0 | 0.00 | 0.00 | 0.00 | 75 | 1016.4 |
| 20260509204604 | 66 | 107 | 0.0 | 3.0 | 0.00 | 0.00 | 0.00 | 75 | 1016.4 |
| 20260509204504 | 66 | 107 | 0.0 | 3.0 | 0.00 | 0.00 | 0.00 | 75 | 1016.4 |
| 20260509204404 | 66 | 103 | 0.0 | 3.0 | 0.00 | 0.00 | 0.00 | 75 | 1016.4 |
| 20260509204304 | 66 | 103 | 0.0 | 3.0 | 0.00 | 0.00 | 0.00 | 75 | 1016.4 |
| 20260509204204 | 66 | 98 | 0.0 | 3.0 | 0.00 | 0.00 | 0.00 | 75 | 1016.5 |
| 20260509204104 | 66 | 99 | 0.0 | 3.0 | 0.00 | 0.00 | 0.00 | 75 | 1016.4 |
| 20260509204004 | 66 | 112 | 0.0 | 1.0 | 0.00 | 0.00 | 0.00 | 75 | 1016.4 |
| 20260509203904 | 66 | 109 | 0.0 | 3.0 | 0.00 | 0.00 | 0.00 | 75 | 1016.4 |
| 20260509203804 | 66 | 110 | 0.0 | 3.0 | 0.00 | 0.00 | 0.00 | 74 | 1016.4 |
| 20260509203704 | 66 | 110 | 0.0 | 3.0 | 0.00 | 0.00 | 0.00 | 74 | 1016.5 |
| 20260509203604 | 66 | 110 | 0.0 | 3.0 | 0.00 | 0.00 | 0.00 | 74 | 1016.4 |
| 20260509203504 | 66 | 109 | 0.0 | 3.0 | 0.00 | 0.00 | 0.00 | 74 | 1016.4 |
| 20260509203404 | 66 | 109 | 0.0 | 3.0 | 0.00 | 0.00 | 0.00 | 74 | 1016.5 |
| 20260509203304 | 66 | 109 | 0.0 | 3.0 | 0.00 | 0.00 | 0.00 | 74 | 1016.4 |
| 20260509203204 | 66 | 109 | 0.0 | 3.0 | 0.00 | 0.00 | 0.00 | 74 | 1016.3 |
| 20260509203104 | 66 | 109 | 0.0 | 3.0 | 0.00 | 0.00 | 0.00 | 74 | 1016.4 |
| 20260509203004 | 66 | 109 | 0.0 | 3.0 | 0.00 | 0.00 | 0.00 | 74 | 1016.4 |
| 20260509202904 | 66 | 116 | 0.0 | 3.0 | 0.00 | 0.00 | 0.00 | 74 | 1016.4 |
| 20260509202804 | 66 | 135 | 0.0 | 1.0 | 0.00 | 0.00 | 0.00 | 74 | 1016.4 |
| 20260509202704 | 66 | 114 | 0.0 | 2.0 | 0.00 | 0.00 | 0.00 | 74 | 1016.5 |
| 20260509202604 | 66 | 109 | 0.0 | 2.0 | 0.00 | 0.00 | 0.00 | 74 | 1016.5 |
| 20260509202504 | 66 | 109 | 0.0 | 2.0 | 0.00 | 0.00 | 0.00 | 74 | 1016.5 |
| 20260509202404 | 66 | 109 | 0.0 | 2.0 | 0.00 | 0.00 | 0.00 | 74 | 1016.4 |
| 20260509202306 | 66 | 109 | 0.0 | 2.0 | 0.00 | 0.00 | 0.00 | 74 | 1016.4 |
| 20260509202204 | 66 | 109 | 0.0 | 2.0 | 0.00 | 0.00 | 0.00 | 74 | 1016.5 |
| 20260509202104 | 66 | 109 | 0.0 | 2.0 | 0.00 | 0.00 | 0.00 | 74 | 1016.5 |
| 20260509202004 | 66 | 110 | 0.0 | 2.0 | 0.00 | 0.00 | 0.00 | 75 | 1016.6 |
| 20260509201904 | 66 | 107 | 0.0 | 2.0 | 0.00 | 0.00 | 0.00 | 75 | 1016.7 |
| 20260509201804 | 66 | 105 | 0.0 | 2.0 | 0.00 | 0.00 | 0.00 | 75 | 1016.6 |
| 20260509201704 | 66 | 95 | 0.0 | 2.0 | 0.00 | 0.00 | 0.00 | 75 | 1016.6 |
| 20260509201604 | 66 | 95 | 0.0 | 2.0 | 0.00 | 0.00 | 0.00 | 75 | 1016.6 |
| 20260509201504 | 66 | 95 | 0.0 | 2.0 | 0.00 | 0.00 | 0.00 | 75 | 1016.7 |
| 20260509201404 | 66 | 95 | 0.0 | 2.0 | 0.00 | 0.00 | 0.00 | 75 | 1016.7 |
| 20260509201304 | 66 | 95 | 0.0 | 2.0 | 0.00 | 0.00 | 0.00 | 75 | 1016.6 |
| 20260509201203 | 66 | 95 | 0.0 | 2.0 | 0.00 | 0.00 | 0.00 | 75 | 1016.6 |
| 20260509201104 | 66 | 95 | 0.0 | 2.0 | 0.00 | 0.00 | 0.00 | 75 | 1016.6 |
| 20260509201003 | 66 | 74 | 0.0 | 2.0 | 0.00 | 0.00 | 0.00 | 75 | 1016.7 |
| 20260509200904 | 66 | 58 | 0.0 | 2.0 | 0.00 | 0.00 | 0.00 | 75 | 1016.7 |
| 20260509200804 | 66 | 49 | 0.0 | 2.0 | 0.00 | 0.00 | 0.00 | 75 | 1016.6 |
| 20260509200704 | 66 | 22 | 0.0 | 1.0 | 0.00 | 0.00 | 0.00 | 75 | 1016.7 |
| 20260509200604 | 66 | 22 | 0.0 | 1.0 | 0.00 | 0.00 | 0.00 | 75 | 1016.7 |
| 20260509200504 | 66 | 22 | 0.0 | 1.0 | 0.00 | 0.00 | 0.00 | 76 | 1016.7 |
| 20260509200404 | 66 | 326 | 0.0 | 1.0 | 0.00 | 0.00 | 0.00 | 76 | 1016.7 |
| 20260509200304 | 66 | 326 | 0.0 | 1.0 | 0.00 | 0.00 | 0.00 | 76 | 1016.8 |
| 20260509200204 | 66 | 123 | 0.0 | 3.0 | 0.00 | 0.00 | 0.00 | 76 | 1016.8 |
| 20260509200103 | 66 | 140 | 0.0 | 3.0 | 0.00 | 0.00 | 0.00 | 76 | 1016.8 |
| 20260509200004 | 66 | 122 | 0.0 | 3.0 | 0.00 | 0.00 | 0.00 | 76 | 1016.9 |
| 20260509195904 | 66 | 135 | 0.0 | 3.0 | 0.00 | 0.00 | 0.00 | 76 | 1016.9 |
| 20260509195804 | 66 | 135 | 0.0 | 3.0 | 0.00 | 0.00 | 0.00 | 77 | 1016.9 |
| 20260509195704 | 66 | 138 | 0.0 | 3.0 | 0.00 | 0.00 | 0.00 | 77 | 1016.9 |
| 20260509195603 | 66 | 138 | 0.0 | 3.0 | 0.00 | 0.00 | 0.00 | 77 | 1016.9 |
| 20260509195504 | 66 | 138 | 0.0 | 3.0 | 0.00 | 0.00 | 0.00 | 77 | 1016.9 |
| 20260509195403 | 66 | 119 | 0.0 | 3.0 | 0.00 | 0.00 | 0.00 | 77 | 1016.9 |
| 20260509195306 | 66 | 118 | 0.0 | 3.0 | 0.00 | 0.00 | 0.00 | 77 | 1016.9 |
| 20260509195203 | 66 | 107 | 0.0 | 4.0 | 0.00 | 0.00 | 0.00 | 77 | 1016.9 |
| 20260509195103 | 66 | 107 | 0.0 | 4.0 | 0.00 | 0.00 | 0.00 | 77 | 1016.9 |
| 20260509195004 | 66 | 112 | 0.0 | 4.0 | 0.00 | 0.00 | 0.00 | 77 | 1017.0 |
| 20260509194903 | 66 | 114 | 0.0 | 4.0 | 0.00 | 0.00 | 0.00 | 77 | 1016.9 |
| 20260509194803 | 66 | 114 | 1.0 | 4.0 | 0.00 | 0.00 | 0.00 | 77 | 1016.9 |
| 20260509194704 | 66 | 113 | 0.0 | 4.0 | 0.00 | 0.00 | 0.00 | 77 | 1016.9 |
| 20260509194603 | 66 | 113 | 1.0 | 4.0 | 0.00 | 0.00 | 0.00 | 77 | 1016.9 |
| 20260509194504 | 66 | 113 | 0.0 | 4.0 | 0.00 | 0.00 | 0.00 | 77 | 1016.9 |
| 20260509194403 | 66 | 115 | 0.0 | 4.0 | 0.00 | 0.00 | 0.00 | 77 | 1016.9 |
| 20260509194303 | 66 | 115 | 0.0 | 4.0 | 0.00 | 0.00 | 0.00 | 77 | 1016.8 |
| 20260509194203 | 66 | 116 | 0.0 | 2.0 | 0.00 | 0.00 | 0.00 | 78 | 1016.8 |
| 20260509194103 | 66 | 110 | 0.0 | 2.0 | 0.00 | 0.00 | 0.00 | 78 | 1016.8 |
| 20260509194003 | 66 | 93 | 0.0 | 4.0 | 0.00 | 0.00 | 0.00 | 78 | 1016.8 |
| 20260509193903 | 66 | 94 | 0.0 | 4.0 | 0.00 | 0.00 | 0.00 | 78 | 1016.8 |
| 20260509193803 | 66 | 94 | 0.0 | 4.0 | 0.00 | 0.00 | 0.00 | 78 | 1016.9 |
| 20260509193703 | 66 | 96 | 0.0 | 4.0 | 0.00 | 0.00 | 0.00 | 78 | 1016.9 |
| 20260509193603 | 66 | 95 | 0.0 | 4.0 | 0.00 | 0.00 | 0.00 | 78 | 1017.0 |
| 20260509193503 | 66 | 96 | 0.0 | 4.0 | 0.00 | 0.00 | 0.00 | 78 | 1017.0 |
| 20260509193403 | 66 | 97 | 0.0 | 4.0 | 0.00 | 0.00 | 0.00 | 78 | 1017.0 |
| 20260509193303 | 66 | 99 | 0.0 | 4.0 | 0.00 | 0.00 | 0.00 | 78 | 1016.9 |
| 20260509193203 | 66 | 100 | 0.0 | 4.0 | 0.00 | 0.00 | 0.00 | 78 | 1017.0 |
| 20260509193103 | 66 | 100 | 0.0 | 4.0 | 0.00 | 0.00 | 0.00 | 78 | 1017.0 |
| 20260509193003 | 66 | 107 | 0.0 | 6.0 | 0.00 | 0.00 | 0.00 | 78 | 1017.1 |
| 20260509192903 | 66 | 105 | 0.0 | 6.0 | 0.00 | 0.00 | 0.00 | 78 | 1017.1 |
| 20260509192803 | 66 | 104 | 0.0 | 6.0 | 0.00 | 0.00 | 0.00 | 78 | 1017.1 |
| 20260509192703 | 66 | 103 | 0.0 | 6.0 | 0.00 | 0.00 | 0.00 | 78 | 1017.1 |
| 20260509192603 | 66 | 104 | 0.0 | 6.0 | 0.00 | 0.00 | 0.00 | 79 | 1017.1 |
| 20260509192503 | 66 | 103 | 0.0 | 6.0 | 0.00 | 0.00 | 0.00 | 79 | 1017.0 |
| 20260509192403 | 66 | 102 | 0.0 | 6.0 | 0.00 | 0.00 | 0.00 | 79 | 1017.0 |
| 20260509192306 | 66 | 86 | 0.0 | 6.0 | 0.00 | 0.00 | 0.00 | 79 | 1017.0 |
| 20260509192203 | 66 | 100 | 0.0 | 6.0 | 0.00 | 0.00 | 0.00 | 79 | 1016.9 |
| 20260509192103 | 66 | 101 | 0.0 | 6.0 | 0.00 | 0.00 | 0.00 | 79 | 1016.9 |
| 20260509192003 | 66 | 105 | 0.0 | 2.0 | 0.00 | 0.00 | 0.00 | 79 | 1017.1 |
| 20260509191903 | 66 | 105 | 0.0 | 2.0 | 0.00 | 0.00 | 0.00 | 79 | 1017.2 |
| 20260509191803 | 66 | 105 | 0.0 | 2.0 | 0.00 | 0.00 | 0.00 | 79 | 1017.1 |
| 20260509191703 | 66 | 105 | 0.0 | 2.0 | 0.00 | 0.00 | 0.00 | 79 | 1017.1 |
| 20260509191603 | 66 | 105 | 0.0 | 2.0 | 0.00 | 0.00 | 0.00 | 79 | 1017.0 |
| 20260509191503 | 66 | 106 | 0.0 | 2.0 | 0.00 | 0.00 | 0.00 | 79 | 1017.0 |
| 20260509191403 | 66 | 106 | 0.0 | 2.0 | 0.00 | 0.00 | 0.00 | 79 | 1017.0 |
| 20260509191303 | 66 | 115 | 0.0 | 2.0 | 0.00 | 0.00 | 0.00 | 79 | 1017.1 |
| 20260509191203 | 66 | 112 | 0.0 | 2.0 | 0.00 | 0.00 | 0.00 | 79 | 1017.0 |
| 20260509191103 | 66 | 112 | 0.0 | 2.0 | 0.00 | 0.00 | 0.00 | 79 | 1017.0 |
| 20260509191003 | 66 | 116 | 0.0 | 2.0 | 0.00 | 0.00 | 0.00 | 79 | 1017.0 |
| 20260509190903 | 66 | 115 | 0.0 | 2.0 | 0.00 | 0.00 | 0.00 | 79 | 1017.0 |
| 20260509190803 | 66 | 115 | 0.0 | 2.0 | 0.00 | 0.00 | 0.00 | 79 | 1017.0 |
| 20260509190703 | 66 | 115 | 0.0 | 2.0 | 0.00 | 0.00 | 0.00 | 79 | 1017.0 |
| 20260509190603 | 66 | 113 | 0.0 | 2.0 | 0.00 | 0.00 | 0.00 | 80 | 1016.9 |
| 20260509190503 | 66 | 105 | 0.0 | 2.0 | 0.00 | 0.00 | 0.00 | 80 | 1016.8 |
| 20260509190403 | 66 | 105 | 0.0 | 2.0 | 0.00 | 0.00 | 0.00 | 80 | 1017.1 |
| 20260509190303 | 66 | 103 | 0.0 | 2.0 | 0.00 | 0.00 | 0.00 | 80 | 1017.1 |
| 20260509190203 | 66 | 101 | 0.0 | 2.0 | 0.00 | 0.00 | 0.00 | 80 | 1017.0 |
| 20260509190003 | 66 | 106 | 0.0 | 3.0 | 0.00 | 0.00 | 0.00 | 80 | 1016.9 |
| 20260509185903 | 66 | 106 | 0.0 | 3.0 | 0.00 | 0.00 | 0.00 | 80 | 1016.9 |
| 20260509185803 | 66 | 111 | 0.0 | 4.0 | 0.00 | 0.00 | 0.00 | 80 | 1016.9 |
| 20260509185704 | 66 | 107 | 0.0 | 4.0 | 0.00 | 0.00 | 0.00 | 80 | 1016.9 |
| 20260509185603 | 66 | 111 | 0.0 | 4.0 | 0.00 | 0.00 | 0.00 | 80 | 1017.1 |
| 20260509185503 | 66 | 115 | 0.0 | 4.0 | 0.00 | 0.00 | 0.00 | 80 | 1017.0 |
| 20260509185403 | 66 | 112 | 0.0 | 4.0 | 0.00 | 0.00 | 0.00 | 80 | 1017.0 |
| 20260509185306 | 66 | 112 | 0.0 | 4.0 | 0.00 | 0.00 | 0.00 | 80 | 1017.1 |
| 20260509185203 | 66 | 110 | 0.0 | 4.0 | 0.00 | 0.00 | 0.00 | 80 | 1017.0 |
| 20260509185103 | 66 | 110 | 0.0 | 4.0 | 0.00 | 0.00 | 0.00 | 80 | 1017.0 |
| 20260509185003 | 66 | 107 | 0.0 | 4.0 | 0.00 | 0.00 | 0.00 | 80 | 1016.9 |
| 20260509184903 | 66 | 107 | 0.0 | 4.0 | 0.00 | 0.00 | 0.00 | 80 | 1016.9 |
| 20260509184803 | 66 | 102 | 0.0 | 3.0 | 0.00 | 0.00 | 0.00 | 80 | 1016.9 |
| 20260509184703 | 66 | 104 | 0.0 | 2.0 | 0.00 | 0.00 | 0.00 | 80 | 1016.9 |
| 20260509184603 | 66 | 105 | 0.0 | 5.0 | 0.00 | 0.00 | 0.00 | 80 | 1016.9 |
| 20260509184503 | 66 | 104 | 0.0 | 5.0 | 0.00 | 0.00 | 0.00 | 80 | 1016.9 |
| 20260509184403 | 66 | 105 | 0.0 | 5.0 | 0.00 | 0.00 | 0.00 | 80 | 1016.8 |
| 20260509184303 | 66 | 105 | 0.0 | 5.0 | 0.00 | 0.00 | 0.00 | 80 | 1016.8 |
| 20260509184203 | 66 | 109 | 0.0 | 5.0 | 0.00 | 0.00 | 0.00 | 80 | 1016.7 |
| 20260509184103 | 66 | 109 | 0.0 | 5.0 | 0.00 | 0.00 | 0.00 | 80 | 1016.8 |
| 20260509184003 | 66 | 109 | 0.0 | 5.0 | 0.00 | 0.00 | 0.00 | 80 | 1016.8 |
| 20260509183903 | 66 | 109 | 0.0 | 5.0 | 0.00 | 0.00 | 0.00 | 80 | 1016.8 |
| 20260509183803 | 66 | 108 | 0.0 | 5.0 | 0.00 | 0.00 | 0.00 | 80 | 1016.9 |
| 20260509183703 | 66 | 107 | 0.0 | 5.0 | 0.00 | 0.00 | 0.00 | 80 | 1016.8 |
| 20260509183603 | 66 | 99 | 0.0 | 4.0 | 0.00 | 0.00 | 0.00 | 80 | 1016.8 |
| 20260509183503 | 66 | 101 | 1.0 | 4.0 | 0.00 | 0.00 | 0.00 | 80 | 1016.8 |
| 20260509183403 | 66 | 104 | 0.0 | 4.0 | 0.00 | 0.00 | 0.00 | 80 | 1016.7 |
| 20260509183303 | 66 | 103 | 0.0 | 4.0 | 0.00 | 0.00 | 0.00 | 80 | 1016.7 |
| 20260509183203 | 66 | 104 | 1.0 | 4.0 | 0.00 | 0.00 | 0.00 | 80 | 1016.7 |
| 20260509183103 | 66 | 104 | 1.0 | 4.0 | 0.00 | 0.00 | 0.00 | 80 | 1016.8 |
| 20260509183003 | 66 | 102 | 1.0 | 4.0 | 0.00 | 0.00 | 0.00 | 80 | 1016.8 |
| 20260509182903 | 66 | 102 | 1.0 | 4.0 | 0.00 | 0.00 | 0.00 | 80 | 1016.7 |
| 20260509182803 | 66 | 103 | 1.0 | 4.0 | 0.00 | 0.00 | 0.00 | 80 | 1016.7 |
| 20260509182703 | 67 | 103 | 1.0 | 4.0 | 0.00 | 0.00 | 0.00 | 80 | 1016.6 |
| 20260509182603 | 67 | 107 | 0.0 | 4.0 | 0.00 | 0.00 | 0.00 | 80 | 1016.7 |
| 20260509182503 | 67 | 104 | 0.0 | 2.0 | 0.00 | 0.00 | 0.00 | 80 | 1016.7 |
| 20260509182403 | 67 | 104 | 0.0 | 2.0 | 0.00 | 0.00 | 0.00 | 80 | 1016.8 |
| 20260509182306 | 67 | 107 | 0.0 | 2.0 | 0.00 | 0.00 | 0.00 | 79 | 1016.8 |
| 20260509182203 | 67 | 104 | 0.0 | 2.0 | 0.00 | 0.00 | 0.00 | 79 | 1016.8 |
| 20260509182103 | 67 | 106 | 0.0 | 4.0 | 0.00 | 0.00 | 0.00 | 79 | 1016.8 |
| 20260509182003 | 67 | 110 | 0.0 | 4.0 | 0.00 | 0.00 | 0.00 | 79 | 1016.8 |
| 20260509181903 | 67 | 107 | 0.0 | 4.0 | 0.00 | 0.00 | 0.00 | 79 | 1016.8 |
| 20260509181803 | 67 | 107 | 0.0 | 4.0 | 0.00 | 0.00 | 0.00 | 79 | 1016.8 |
| 20260509181703 | 67 | 107 | 0.0 | 4.0 | 0.00 | 0.00 | 0.00 | 79 | 1016.8 |
| 20260509181604 | 67 | 107 | 0.0 | 4.0 | 0.00 | 0.00 | 0.00 | 79 | 1016.8 |
| 20260509181504 | 67 | 107 | 0.0 | 4.0 | 0.00 | 0.00 | 0.00 | 79 | 1016.7 |
| 20260509181404 | 67 | 105 | 0.0 | 4.0 | 0.00 | 0.00 | 0.00 | 79 | 1016.8 |
| 20260509181304 | 67 | 106 | 0.0 | 4.0 | 0.00 | 0.00 | 0.00 | 79 | 1016.7 |
| 20260509181204 | 67 | 109 | 1.0 | 4.0 | 0.00 | 0.00 | 0.00 | 79 | 1016.7 |
| 20260509181104 | 67 | 110 | 0.0 | 4.0 | 0.00 | 0.00 | 0.00 | 79 | 1016.7 |
| 20260509181004 | 67 | 110 | 0.0 | 4.0 | 0.00 | 0.00 | 0.00 | 79 | 1016.8 |
| 20260509180904 | 67 | 115 | 0.0 | 4.0 | 0.00 | 0.00 | 0.00 | 79 | 1016.8 |
| 20260509180804 | 67 | 116 | 0.0 | 4.0 | 0.00 | 0.00 | 0.00 | 79 | 1016.7 |
| 20260509180704 | 67 | 111 | 0.0 | 4.0 | 0.00 | 0.00 | 0.00 | 79 | 1016.8 |
| 20260509180604 | 67 | 108 | 0.0 | 4.0 | 0.00 | 0.00 | 0.00 | 78 | 1016.8 |
| 20260509180504 | 67 | 113 | 0.0 | 4.0 | 0.00 | 0.00 | 0.00 | 78 | 1016.9 |
| 20260509180404 | 67 | 111 | 1.0 | 4.0 | 0.00 | 0.00 | 0.00 | 78 | 1016.9 |
| 20260509180304 | 67 | 108 | 1.0 | 4.0 | 0.00 | 0.00 | 0.00 | 78 | 1016.9 |
| 20260509180204 | 67 | 105 | 1.0 | 4.0 | 0.00 | 0.00 | 0.00 | 78 | 1016.9 |
| 20260509180104 | 67 | 106 | 1.0 | 4.0 | 0.00 | 0.00 | 0.00 | 78 | 1016.9 |
| 20260509180004 | 67 | 105 | 1.0 | 4.0 | 0.00 | 0.00 | 0.00 | 78 | 1016.8 |
| 20260509175904 | 67 | 104 | 1.0 | 4.0 | 0.00 | 0.00 | 0.00 | 78 | 1016.8 |
| 20260509175804 | 67 | 104 | 1.0 | 4.0 | 0.00 | 0.00 | 0.00 | 78 | 1016.9 |
| 20260509175704 | 67 | 106 | 1.0 | 4.0 | 0.00 | 0.00 | 0.00 | 78 | 1016.8 |
| 20260509175604 | 67 | 107 | 1.0 | 4.0 | 0.00 | 0.00 | 0.00 | 78 | 1016.8 |
| 20260509175504 | 67 | 104 | 1.0 | 4.0 | 0.00 | 0.00 | 0.00 | 78 | 1016.8 |
| 20260509175404 | 67 | 105 | 1.0 | 5.0 | 0.00 | 0.00 | 0.00 | 78 | 1016.8 |
| 20260509175306 | 67 | 107 | 1.0 | 5.0 | 0.00 | 0.00 | 0.00 | 78 | 1016.8 |
| 20260509175204 | 67 | 106 | 1.0 | 5.0 | 0.00 | 0.00 | 0.00 | 78 | 1016.8 |
| 20260509175104 | 67 | 106 | 0.0 | 5.0 | 0.00 | 0.00 | 0.00 | 78 | 1016.8 |
| 20260509175004 | 67 | 107 | 0.0 | 5.0 | 0.00 | 0.00 | 0.00 | 78 | 1016.8 |
| 20260509174904 | 67 | 108 | 0.0 | 5.0 | 0.00 | 0.00 | 0.00 | 78 | 1016.8 |
| 20260509174804 | 67 | 107 | 0.0 | 5.0 | 0.00 | 0.00 | 0.00 | 78 | 1016.8 |
| 20260509174704 | 67 | 105 | 0.0 | 5.0 | 0.00 | 0.00 | 0.00 | 78 | 1016.7 |
| 20260509174604 | 67 | 105 | 1.0 | 5.0 | 0.00 | 0.00 | 0.00 | 78 | 1016.7 |
| 20260509174504 | 67 | 104 | 1.0 | 5.0 | 0.00 | 0.00 | 0.00 | 78 | 1016.7 |
| 20260509174404 | 67 | 101 | 0.0 | 4.0 | 0.00 | 0.00 | 0.00 | 78 | 1016.7 |
| 20260509174304 | 67 | 100 | 0.0 | 4.0 | 0.00 | 0.00 | 0.00 | 78 | 1016.5 |
| 20260509174204 | 67 | 101 | 0.0 | 4.0 | 0.00 | 0.00 | 0.00 | 77 | 1016.6 |
| 20260509174104 | 67 | 102 | 0.0 | 4.0 | 0.00 | 0.00 | 0.00 | 77 | 1016.6 |
| 20260509174004 | 67 | 102 | 0.0 | 4.0 | 0.00 | 0.00 | 0.00 | 77 | 1016.5 |
| 20260509173904 | 67 | 102 | 0.0 | 4.0 | 0.00 | 0.00 | 0.00 | 77 | 1016.5 |
| 20260509173804 | 67 | 103 | 0.0 | 4.0 | 0.00 | 0.00 | 0.00 | 77 | 1016.6 |
| 20260509173704 | 67 | 103 | 1.0 | 4.0 | 0.00 | 0.00 | 0.00 | 77 | 1016.6 |
| 20260509173604 | 67 | 103 | 0.0 | 4.0 | 0.00 | 0.00 | 0.00 | 77 | 1016.6 |
| 20260509173504 | 67 | 103 | 0.0 | 4.0 | 0.00 | 0.00 | 0.00 | 77 | 1016.6 |
| 20260509173404 | 67 | 104 | 0.0 | 4.0 | 0.00 | 0.00 | 0.00 | 77 | 1016.5 |
| 20260509173304 | 67 | 106 | 0.0 | 4.0 | 0.00 | 0.00 | 0.00 | 77 | 1016.5 |
| 20260509173204 | 67 | 104 | 0.0 | 4.0 | 0.00 | 0.00 | 0.00 | 77 | 1016.5 |
| 20260509173104 | 68 | 104 | 0.0 | 4.0 | 0.00 | 0.00 | 0.00 | 77 | 1016.5 |
| 20260509173004 | 68 | 104 | 0.0 | 4.0 | 0.00 | 0.00 | 0.00 | 77 | 1016.5 |
| 20260509172904 | 68 | 104 | 0.0 | 4.0 | 0.00 | 0.00 | 0.00 | 76 | 1016.4 |
| 20260509172803 | 68 | 106 | 0.0 | 4.0 | 0.00 | 0.00 | 0.00 | 76 | 1016.4 |
| 20260509172704 | 68 | 267 | 0.0 | 3.0 | 0.00 | 0.00 | 0.00 | 76 | 1016.4 |
| 20260509172604 | 68 | 267 | 0.0 | 3.0 | 0.00 | 0.00 | 0.00 | 76 | 1016.4 |
| 20260509172504 | 68 | 267 | 0.0 | 3.0 | 0.00 | 0.00 | 0.00 | 76 | 1016.5 |
| 20260509172403 | 68 | 262 | 0.0 | 3.0 | 0.00 | 0.00 | 0.00 | 76 | 1016.5 |
| 20260509172306 | 68 | 145 | 0.0 | 3.0 | 0.00 | 0.00 | 0.00 | 76 | 1016.5 |
| 20260509172203 | 68 | 128 | 0.0 | 3.0 | 0.00 | 0.00 | 0.00 | 76 | 1016.5 |
| 20260509172104 | 68 | 114 | 0.0 | 4.0 | 0.00 | 0.00 | 0.00 | 76 | 1016.4 |
| 20260509172003 | 68 | 114 | 0.0 | 4.0 | 0.00 | 0.00 | 0.00 | 76 | 1016.4 |
| 20260509171903 | 68 | 117 | 0.0 | 4.0 | 0.00 | 0.00 | 0.00 | 76 | 1016.4 |
| 20260509171803 | 68 | 113 | 0.0 | 4.0 | 0.00 | 0.00 | 0.00 | 76 | 1016.5 |
| 20260509171704 | 68 | 112 | 0.0 | 4.0 | 0.00 | 0.00 | 0.00 | 76 | 1016.5 |
| 20260509171603 | 68 | 113 | 0.0 | 4.0 | 0.00 | 0.00 | 0.00 | 76 | 1016.4 |
| 20260509171504 | 68 | 109 | 1.0 | 6.0 | 0.00 | 0.00 | 0.00 | 76 | 1016.4 |
| 20260509171403 | 68 | 109 | 1.0 | 6.0 | 0.00 | 0.00 | 0.00 | 76 | 1016.4 |
| 20260509171303 | 68 | 109 | 1.0 | 6.0 | 0.00 | 0.00 | 0.00 | 76 | 1016.4 |
| 20260509171203 | 68 | 107 | 1.0 | 6.0 | 0.00 | 0.00 | 0.00 | 76 | 1016.4 |
| 20260509171103 | 68 | 109 | 1.0 | 6.0 | 0.00 | 0.00 | 0.00 | 75 | 1016.4 |
| 20260509171004 | 68 | 108 | 1.0 | 6.0 | 0.00 | 0.00 | 0.00 | 75 | 1016.4 |
| 20260509170903 | 68 | 107 | 1.0 | 6.0 | 0.00 | 0.00 | 0.00 | 75 | 1016.4 |
| 20260509170803 | 68 | 107 | 1.0 | 6.0 | 0.00 | 0.00 | 0.00 | 75 | 1016.4 |
| 20260509170703 | 68 | 106 | 0.0 | 6.0 | 0.00 | 0.00 | 0.00 | 75 | 1016.4 |
| 20260509170603 | 68 | 105 | 1.0 | 6.0 | 0.00 | 0.00 | 0.00 | 75 | 1016.4 |
| 20260509170504 | 68 | 107 | 0.0 | 4.0 | 0.00 | 0.00 | 0.00 | 75 | 1016.4 |
| 20260509170403 | 68 | 107 | 0.0 | 4.0 | 0.00 | 0.00 | 0.00 | 75 | 1016.4 |
| 20260509170303 | 68 | 104 | 0.0 | 4.0 | 0.00 | 0.00 | 0.00 | 75 | 1016.4 |
| 20260509170203 | 68 | 103 | 0.0 | 4.0 | 0.00 | 0.00 | 0.00 | 75 | 1016.3 |
| 20260509170003 | 69 | 105 | 0.0 | 4.0 | 0.00 | 0.00 | 0.00 | 74 | 1016.4 |
| 20260509165903 | 69 | 104 | 1.0 | 4.0 | 0.00 | 0.00 | 0.00 | 74 | 1016.4 |
| 20260509165803 | 69 | 103 | 1.0 | 4.0 | 0.00 | 0.00 | 0.00 | 74 | 1016.5 |
| 20260509165703 | 69 | 103 | 1.0 | 5.0 | 0.00 | 0.00 | 0.00 | 74 | 1016.4 |
| 20260509165603 | 69 | 101 | 1.0 | 5.0 | 0.00 | 0.00 | 0.00 | 74 | 1016.4 |
| 20260509165503 | 69 | 101 | 0.0 | 5.0 | 0.00 | 0.00 | 0.00 | 74 | 1016.4 |
| 20260509165403 | 69 | 101 | 0.0 | 5.0 | 0.00 | 0.00 | 0.00 | 74 | 1016.4 |
| 20260509165306 | 69 | 102 | 0.0 | 5.0 | 0.00 | 0.00 | 0.00 | 74 | 1016.4 |
| 20260509165203 | 69 | 103 | 0.0 | 5.0 | 0.00 | 0.00 | 0.00 | 74 | 1016.4 |
| 20260509165103 | 69 | 103 | 0.0 | 5.0 | 0.00 | 0.00 | 0.00 | 74 | 1016.4 |
| 20260509165003 | 69 | 99 | 0.0 | 5.0 | 0.00 | 0.00 | 0.00 | 74 | 1016.3 |
| 20260509164903 | 69 | 101 | 0.0 | 5.0 | 0.00 | 0.00 | 0.00 | 74 | 1016.4 |
| 20260509164803 | 69 | 103 | 0.0 | 5.0 | 0.00 | 0.00 | 0.00 | 73 | 1016.4 |
| 20260509164703 | 69 | 103 | 0.0 | 2.0 | 0.00 | 0.00 | 0.00 | 73 | 1016.4 |
| 20260509164603 | 69 | 107 | 0.0 | 2.0 | 0.00 | 0.00 | 0.00 | 73 | 1016.3 |
| 20260509164503 | 69 | 107 | 0.0 | 2.0 | 0.00 | 0.00 | 0.00 | 73 | 1016.3 |
| 20260509164403 | 69 | 107 | 0.0 | 2.0 | 0.00 | 0.00 | 0.00 | 73 | 1016.3 |
| 20260509164303 | 69 | 105 | 0.0 | 2.0 | 0.00 | 0.00 | 0.00 | 73 | 1016.3 |
| 20260509164203 | 69 | 105 | 0.0 | 2.0 | 0.00 | 0.00 | 0.00 | 73 | 1016.3 |
| 20260509164103 | 69 | 103 | 0.0 | 2.0 | 0.00 | 0.00 | 0.00 | 73 | 1016.3 |
| 20260509164003 | 70 | 107 | 0.0 | 2.0 | 0.00 | 0.00 | 0.00 | 73 | 1016.3 |
| 20260509163903 | 70 | 107 | 0.0 | 2.0 | 0.00 | 0.00 | 0.00 | 73 | 1016.3 |
| 20260509163803 | 70 | 107 | 0.0 | 2.0 | 0.00 | 0.00 | 0.00 | 73 | 1016.3 |
| 20260509163703 | 70 | 107 | 0.0 | 2.0 | 0.00 | 0.00 | 0.00 | 73 | 1016.3 |
| 20260509163603 | 70 | 107 | 0.0 | 2.0 | 0.00 | 0.00 | 0.00 | 73 | 1016.3 |
| 20260509163503 | 70 | 107 | 0.0 | 2.0 | 0.00 | 0.00 | 0.00 | 73 | 1016.3 |
| 20260509163403 | 70 | 107 | 0.0 | 2.0 | 0.00 | 0.00 | 0.00 | 73 | 1016.3 |
| 20260509163303 | 70 | 292 | 0.0 | 3.0 | 0.00 | 0.00 | 0.00 | 72 | 1016.3 |
| 20260509163203 | 70 | 112 | 0.0 | 4.0 | 0.00 | 0.00 | 0.00 | 72 | 1016.2 |
| 20260509163103 | 70 | 112 | 0.0 | 4.0 | 0.00 | 0.00 | 0.00 | 72 | 1016.2 |
| 20260509163003 | 70 | 112 | 0.0 | 4.0 | 0.00 | 0.00 | 0.00 | 72 | 1016.2 |
| 20260509162903 | 70 | 112 | 0.0 | 4.0 | 0.00 | 0.00 | 0.00 | 72 | 1016.3 |
| 20260509162803 | 70 | 112 | 0.0 | 4.0 | 0.00 | 0.00 | 0.00 | 72 | 1016.3 |
| 20260509162703 | 70 | 108 | 0.0 | 5.0 | 0.00 | 0.00 | 0.00 | 72 | 1016.2 |
| 20260509162603 | 70 | 107 | 1.0 | 5.0 | 0.00 | 0.00 | 0.00 | 72 | 1016.2 |
| 20260509162503 | 70 | 107 | 1.0 | 5.0 | 0.00 | 0.00 | 0.00 | 72 | 1016.3 |
| 20260509162403 | 70 | 105 | 1.0 | 5.0 | 0.00 | 0.00 | 0.00 | 72 | 1016.3 |
| 20260509162306 | 70 | 106 | 1.0 | 5.0 | 0.00 | 0.00 | 0.00 | 72 | 1016.3 |
| 20260509162203 | 70 | 106 | 1.0 | 5.0 | 0.00 | 0.00 | 0.00 | 72 | 1016.2 |
| 20260509162103 | 70 | 105 | 0.0 | 5.0 | 0.00 | 0.00 | 0.00 | 72 | 1016.3 |
| 20260509162003 | 70 | 105 | 1.0 | 5.0 | 0.00 | 0.00 | 0.00 | 72 | 1016.3 |
| 20260509161903 | 70 | 105 | 1.0 | 5.0 | 0.00 | 0.00 | 0.00 | 72 | 1016.3 |
| 20260509161803 | 70 | 103 | 1.0 | 5.0 | 0.00 | 0.00 | 0.00 | 72 | 1016.3 |
| 20260509161703 | 70 | 103 | 1.0 | 5.0 | 0.00 | 0.00 | 0.00 | 72 | 1016.3 |
| 20260509161603 | 70 | 102 | 0.0 | 5.0 | 0.00 | 0.00 | 0.00 | 72 | 1016.3 |
| 20260509161503 | 70 | 107 | 1.0 | 5.0 | 0.00 | 0.00 | 0.00 | 72 | 1016.3 |
| 20260509161403 | 70 | 109 | 1.0 | 5.0 | 0.00 | 0.00 | 0.00 | 72 | 1016.3 |
| 20260509161303 | 70 | 105 | 1.0 | 5.0 | 0.00 | 0.00 | 0.00 | 71 | 1016.3 |
| 20260509161203 | 70 | 104 | 1.0 | 5.0 | 0.00 | 0.00 | 0.00 | 71 | 1016.3 |
| 20260509161103 | 70 | 104 | 1.0 | 5.0 | 0.00 | 0.00 | 0.00 | 71 | 1016.3 |
| 20260509161003 | 70 | 104 | 1.0 | 4.0 | 0.00 | 0.00 | 0.00 | 71 | 1016.3 |
| 20260509160903 | 70 | 104 | 1.0 | 4.0 | 0.00 | 0.00 | 0.00 | 71 | 1016.3 |
| 20260509160803 | 70 | 105 | 1.0 | 4.0 | 0.00 | 0.00 | 0.00 | 71 | 1016.3 |
| 20260509160703 | 70 | 105 | 1.0 | 4.0 | 0.00 | 0.00 | 0.00 | 71 | 1016.3 |
| 20260509160603 | 71 | 105 | 1.0 | 4.0 | 0.00 | 0.00 | 0.00 | 71 | 1016.3 |
| 20260509160503 | 71 | 102 | 1.0 | 4.0 | 0.00 | 0.00 | 0.00 | 71 | 1016.3 |
| 20260509160403 | 71 | 99 | 1.0 | 4.0 | 0.00 | 0.00 | 0.00 | 71 | 1016.4 |
| 20260509160303 | 71 | 102 | 0.0 | 4.0 | 0.00 | 0.00 | 0.00 | 71 | 1016.4 |
| 20260509160203 | 71 | 105 | 0.0 | 4.0 | 0.00 | 0.00 | 0.00 | 71 | 1016.4 |
| 20260509160003 | 71 | 108 | 1.0 | 4.0 | 0.00 | 0.00 | 0.00 | 71 | 1016.4 |
| 20260509155903 | 71 | 106 | 1.0 | 4.0 | 0.00 | 0.00 | 0.00 | 71 | 1016.4 |
| 20260509155803 | 71 | 109 | 1.0 | 4.0 | 0.00 | 0.00 | 0.00 | 71 | 1016.3 |
| 20260509155703 | 71 | 108 | 1.0 | 4.0 | 0.00 | 0.00 | 0.00 | 71 | 1016.4 |
| 20260509155603 | 71 | 109 | 1.0 | 4.0 | 0.00 | 0.00 | 0.00 | 71 | 1016.4 |
| 20260509155503 | 71 | 109 | 1.0 | 4.0 | 0.00 | 0.00 | 0.00 | 71 | 1016.4 |
| 20260509155403 | 71 | 109 | 1.0 | 4.0 | 0.00 | 0.00 | 0.00 | 71 | 1016.4 |
| 20260509155306 | 71 | 112 | 1.0 | 4.0 | 0.00 | 0.00 | 0.00 | 71 | 1016.4 |
| 20260509155203 | 71 | 112 | 1.0 | 4.0 | 0.00 | 0.00 | 0.00 | 70 | 1016.4 |
| 20260509155103 | 71 | 112 | 1.0 | 4.0 | 0.00 | 0.00 | 0.00 | 71 | 1016.4 |
| 20260509155004 | 71 | 111 | 1.0 | 4.0 | 0.00 | 0.00 | 0.00 | 70 | 1016.4 |
| 20260509154904 | 71 | 114 | 1.0 | 4.0 | 0.00 | 0.00 | 0.00 | 70 | 1016.5 |
| 20260509154804 | 71 | 111 | 1.0 | 4.0 | 0.00 | 0.00 | 0.00 | 70 | 1016.5 |
| 20260509154704 | 71 | 111 | 1.0 | 4.0 | 0.00 | 0.00 | 0.00 | 70 | 1016.5 |
| 20260509154604 | 71 | 111 | 1.0 | 4.0 | 0.00 | 0.00 | 0.00 | 70 | 1016.4 |
| 20260509154504 | 71 | 112 | 1.0 | 4.0 | 0.00 | 0.00 | 0.00 | 70 | 1016.4 |
| 20260509154404 | 71 | 114 | 0.0 | 4.0 | 0.00 | 0.00 | 0.00 | 71 | 1016.4 |
| 20260509154304 | 71 | 109 | 0.0 | 4.0 | 0.00 | 0.00 | 0.00 | 70 | 1016.4 |
| 20260509154204 | 71 | 107 | 0.0 | 4.0 | 0.00 | 0.00 | 0.00 | 70 | 1016.5 |
| 20260509154104 | 71 | 106 | 0.0 | 4.0 | 0.00 | 0.00 | 0.00 | 70 | 1016.5 |
| 20260509154004 | 71 | 105 | 0.0 | 2.0 | 0.00 | 0.00 | 0.00 | 70 | 1016.5 |
| 20260509153904 | 71 | 105 | 0.0 | 3.0 | 0.00 | 0.00 | 0.00 | 71 | 1016.5 |
| 20260509153804 | 71 | 107 | 0.0 | 3.0 | 0.00 | 0.00 | 0.00 | 71 | 1016.4 |
| 20260509153704 | 71 | 108 | 0.0 | 3.0 | 0.00 | 0.00 | 0.00 | 71 | 1016.5 |
| 20260509153604 | 71 | 108 | 0.0 | 3.0 | 0.00 | 0.00 | 0.00 | 71 | 1016.4 |
| 20260509153504 | 71 | 107 | 0.0 | 3.0 | 0.00 | 0.00 | 0.00 | 71 | 1016.5 |
| 20260509153404 | 71 | 106 | 0.0 | 3.0 | 0.00 | 0.00 | 0.00 | 71 | 1016.5 |
| 20260509153304 | 71 | 109 | 0.0 | 3.0 | 0.00 | 0.00 | 0.00 | 71 | 1016.5 |
| 20260509153204 | 71 | 117 | 0.0 | 3.0 | 0.00 | 0.00 | 0.00 | 71 | 1016.5 |
| 20260509153104 | 71 | 119 | 0.0 | 3.0 | 0.00 | 0.00 | 0.00 | 71 | 1016.5 |
| 20260509153004 | 71 | 119 | 0.0 | 3.0 | 0.00 | 0.00 | 0.00 | 71 | 1016.5 |
| 20260509152904 | 71 | 133 | 0.0 | 3.0 | 0.00 | 0.00 | 0.00 | 71 | 1016.4 |
| 20260509152804 | 71 | 112 | 0.0 | 3.0 | 0.00 | 0.00 | 0.00 | 71 | 1016.4 |
| 20260509152704 | 71 | 109 | 0.0 | 3.0 | 0.00 | 0.00 | 0.00 | 71 | 1016.4 |
| 20260509152604 | 71 | 95 | 0.0 | 4.0 | 0.00 | 0.00 | 0.00 | 71 | 1016.4 |
| 20260509152504 | 71 | 97 | 0.0 | 4.0 | 0.00 | 0.00 | 0.00 | 71 | 1016.4 |
| 20260509152404 | 71 | 98 | 0.0 | 4.0 | 0.00 | 0.00 | 0.00 | 71 | 1016.4 |
| 20260509152306 | 71 | 99 | 0.0 | 4.0 | 0.00 | 0.00 | 0.00 | 71 | 1016.4 |
| 20260509152204 | 71 | 103 | 1.0 | 5.0 | 0.00 | 0.00 | 0.00 | 71 | 1016.4 |
| 20260509152104 | 71 | 101 | 1.0 | 5.0 | 0.00 | 0.00 | 0.00 | 71 | 1016.4 |
| 20260509152004 | 71 | 100 | 1.0 | 5.0 | 0.00 | 0.00 | 0.00 | 71 | 1016.4 |
| 20260509151904 | 71 | 104 | 1.0 | 5.0 | 0.00 | 0.00 | 0.00 | 71 | 1016.4 |
| 20260509151804 | 71 | 107 | 1.0 | 5.0 | 0.00 | 0.00 | 0.00 | 71 | 1016.4 |
| 20260509151704 | 71 | 107 | 1.0 | 5.0 | 0.00 | 0.00 | 0.00 | 71 | 1016.4 |
| 20260509151604 | 71 | 111 | 1.0 | 5.0 | 0.00 | 0.00 | 0.00 | 71 | 1016.4 |
| 20260509151504 | 71 | 110 | 1.0 | 5.0 | 0.00 | 0.00 | 0.00 | 71 | 1016.5 |
| 20260509151404 | 71 | 108 | 1.0 | 5.0 | 0.00 | 0.00 | 0.00 | 71 | 1016.4 |
| 20260509151304 | 71 | 108 | 1.0 | 5.0 | 0.00 | 0.00 | 0.00 | 71 | 1016.4 |
| 20260509151204 | 71 | 108 | 1.0 | 5.0 | 0.00 | 0.00 | 0.00 | 71 | 1016.5 |
| 20260509151103 | 71 | 108 | 1.0 | 5.0 | 0.00 | 0.00 | 0.00 | 71 | 1016.5 |
| 20260509151003 | 71 | 108 | 1.0 | 5.0 | 0.00 | 0.00 | 0.00 | 71 | 1016.4 |
| 20260509150903 | 71 | 107 | 1.0 | 5.0 | 0.00 | 0.00 | 0.00 | 71 | 1016.4 |
| 20260509150803 | 71 | 107 | 1.0 | 4.0 | 0.00 | 0.00 | 0.00 | 72 | 1016.5 |
| 20260509150703 | 71 | 108 | 1.0 | 4.0 | 0.00 | 0.00 | 0.00 | 72 | 1016.5 |
| 20260509150603 | 71 | 110 | 1.0 | 4.0 | 0.00 | 0.00 | 0.00 | 72 | 1016.5 |
| 20260509150503 | 71 | 110 | 1.0 | 4.0 | 0.00 | 0.00 | 0.00 | 72 | 1016.6 |
| 20260509150403 | 71 | 110 | 1.0 | 4.0 | 0.00 | 0.00 | 0.00 | 72 | 1016.5 |
| 20260509150303 | 71 | 110 | 1.0 | 4.0 | 0.00 | 0.00 | 0.00 | 71 | 1016.6 |
| 20260509150203 | 71 | 110 | 1.0 | 6.0 | 0.00 | 0.00 | 0.00 | 71 | 1016.5 |
| 20260509150103 | 71 | 108 | 1.0 | 6.0 | 0.00 | 0.00 | 0.00 | 71 | 1016.5 |
| 20260509150004 | 71 | 108 | 1.0 | 6.0 | 0.00 | 0.00 | 0.00 | 71 | 1016.4 |
| 20260509145903 | 71 | 107 | 1.0 | 6.0 | 0.00 | 0.00 | 0.00 | 71 | 1016.4 |
| 20260509145803 | 71 | 106 | 1.0 | 6.0 | 0.00 | 0.00 | 0.00 | 71 | 1016.4 |
| 20260509145703 | 71 | 105 | 1.0 | 6.0 | 0.00 | 0.00 | 0.00 | 71 | 1016.4 |
| 20260509145603 | 71 | 103 | 1.0 | 6.0 | 0.00 | 0.00 | 0.00 | 71 | 1016.4 |
| 20260509145503 | 71 | 104 | 1.0 | 6.0 | 0.00 | 0.00 | 0.00 | 71 | 1016.5 |
| 20260509145403 | 71 | 105 | 1.0 | 6.0 | 0.00 | 0.00 | 0.00 | 71 | 1016.4 |
| 20260509145306 | 71 | 106 | 1.0 | 6.0 | 0.00 | 0.00 | 0.00 | 71 | 1016.5 |
| 20260509145203 | 71 | 106 | 1.0 | 5.0 | 0.00 | 0.00 | 0.00 | 71 | 1016.5 |
| 20260509145103 | 71 | 105 | 1.0 | 5.0 | 0.00 | 0.00 | 0.00 | 71 | 1016.4 |
| 20260509145003 | 71 | 106 | 1.0 | 5.0 | 0.00 | 0.00 | 0.00 | 71 | 1016.4 |
| 20260509144903 | 71 | 107 | 1.0 | 4.0 | 0.00 | 0.00 | 0.00 | 71 | 1016.3 |
| 20260509144803 | 71 | 109 | 1.0 | 4.0 | 0.00 | 0.00 | 0.00 | 70 | 1016.4 |
| 20260509144703 | 71 | 109 | 1.0 | 4.0 | 0.00 | 0.00 | 0.00 | 70 | 1016.4 |
| 20260509144603 | 71 | 110 | 1.0 | 4.0 | 0.00 | 0.00 | 0.00 | 70 | 1016.4 |
| 20260509144503 | 71 | 111 | 1.0 | 4.0 | 0.00 | 0.00 | 0.00 | 70 | 1016.4 |
| 20260509144403 | 71 | 111 | 1.0 | 4.0 | 0.00 | 0.00 | 0.00 | 70 | 1016.4 |
| 20260509144303 | 71 | 110 | 1.0 | 4.0 | 0.00 | 0.00 | 0.00 | 70 | 1016.4 |
| 20260509144203 | 71 | 110 | 1.0 | 4.0 | 0.00 | 0.00 | 0.00 | 70 | 1016.4 |
| 20260509144103 | 72 | 109 | 1.0 | 5.0 | 0.00 | 0.00 | 0.00 | 70 | 1016.5 |
| 20260509144003 | 72 | 108 | 1.0 | 5.0 | 0.00 | 0.00 | 0.00 | 70 | 1016.4 |
| 20260509143903 | 71 | 108 | 1.0 | 5.0 | 0.00 | 0.00 | 0.00 | 70 | 1016.4 |
| 20260509143803 | 71 | 107 | 1.0 | 5.0 | 0.00 | 0.00 | 0.00 | 70 | 1016.4 |
| 20260509143703 | 71 | 108 | 1.0 | 5.0 | 0.00 | 0.00 | 0.00 | 70 | 1016.5 |
| 20260509143603 | 71 | 105 | 1.0 | 5.0 | 0.00 | 0.00 | 0.00 | 70 | 1016.5 |
| 20260509143503 | 71 | 105 | 1.0 | 5.0 | 0.00 | 0.00 | 0.00 | 70 | 1016.5 |
| 20260509143403 | 71 | 105 | 1.0 | 5.0 | 0.00 | 0.00 | 0.00 | 70 | 1016.5 |
| 20260509143303 | 72 | 105 | 1.0 | 5.0 | 0.00 | 0.00 | 0.00 | 70 | 1016.5 |
| 20260509143203 | 71 | 106 | 1.0 | 5.0 | 0.00 | 0.00 | 0.00 | 70 | 1016.5 |
| 20260509143103 | 71 | 109 | 1.0 | 4.0 | 0.00 | 0.00 | 0.00 | 70 | 1016.5 |
| 20260509143003 | 71 | 108 | 1.0 | 4.0 | 0.00 | 0.00 | 0.00 | 70 | 1016.6 |
| 20260509142903 | 71 | 108 | 1.0 | 4.0 | 0.00 | 0.00 | 0.00 | 70 | 1016.6 |
| 20260509142803 | 71 | 107 | 1.0 | 4.0 | 0.00 | 0.00 | 0.00 | 70 | 1016.5 |
| 20260509142703 | 71 | 107 | 1.0 | 4.0 | 0.00 | 0.00 | 0.00 | 70 | 1016.6 |
| 20260509142603 | 71 | 107 | 1.0 | 4.0 | 0.00 | 0.00 | 0.00 | 70 | 1016.5 |
| 20260509142503 | 71 | 107 | 1.0 | 4.0 | 0.00 | 0.00 | 0.00 | 70 | 1016.5 |
| 20260509142403 | 72 | 107 | 1.0 | 4.0 | 0.00 | 0.00 | 0.00 | 70 | 1016.6 |
| 20260509142306 | 72 | 108 | 1.0 | 6.0 | 0.00 | 0.00 | 0.00 | 70 | 1016.6 |
| 20260509142203 | 72 | 108 | 1.0 | 6.0 | 0.00 | 0.00 | 0.00 | 70 | 1016.5 |
| 20260509142103 | 72 | 110 | 1.0 | 6.0 | 0.00 | 0.00 | 0.00 | 70 | 1016.6 |
| 20260509142003 | 72 | 110 | 1.0 | 6.0 | 0.00 | 0.00 | 0.00 | 70 | 1016.6 |
| 20260509141903 | 72 | 113 | 1.0 | 6.0 | 0.00 | 0.00 | 0.00 | 70 | 1016.6 |
| 20260509141803 | 72 | 113 | 1.0 | 6.0 | 0.00 | 0.00 | 0.00 | 70 | 1016.6 |
| 20260509141703 | 72 | 113 | 1.0 | 6.0 | 0.00 | 0.00 | 0.00 | 70 | 1016.6 |
| 20260509141603 | 72 | 112 | 1.0 | 6.0 | 0.00 | 0.00 | 0.00 | 70 | 1016.5 |
| 20260509141503 | 72 | 112 | 1.0 | 6.0 | 0.00 | 0.00 | 0.00 | 70 | 1016.5 |
| 20260509141403 | 72 | 112 | 1.0 | 6.0 | 0.00 | 0.00 | 0.00 | 70 | 1016.5 |
| 20260509141303 | 72 | 113 | 1.0 | 7.0 | 0.00 | 0.00 | 0.00 | 70 | 1016.5 |
| 20260509141203 | 72 | 113 | 1.0 | 7.0 | 0.00 | 0.00 | 0.00 | 70 | 1016.6 |
| 20260509141103 | 72 | 111 | 1.0 | 7.0 | 0.00 | 0.00 | 0.00 | 70 | 1016.6 |
| 20260509141003 | 72 | 110 | 1.0 | 7.0 | 0.00 | 0.00 | 0.00 | 70 | 1016.6 |
| 20260509140903 | 72 | 105 | 1.0 | 7.0 | 0.00 | 0.00 | 0.00 | 70 | 1016.7 |
| 20260509140803 | 72 | 106 | 1.0 | 7.0 | 0.00 | 0.00 | 0.00 | 70 | 1016.7 |
| 20260509140703 | 72 | 106 | 1.0 | 7.0 | 0.00 | 0.00 | 0.00 | 70 | 1016.7 |
| 20260509140603 | 72 | 108 | 1.0 | 7.0 | 0.00 | 0.00 | 0.00 | 70 | 1016.6 |
| 20260509140503 | 72 | 107 | 1.0 | 7.0 | 0.00 | 0.00 | 0.00 | 70 | 1016.6 |
| 20260509140403 | 72 | 108 | 1.0 | 7.0 | 0.00 | 0.00 | 0.00 | 70 | 1016.6 |
| 20260509140303 | 72 | 105 | 1.0 | 4.0 | 0.00 | 0.00 | 0.00 | 70 | 1016.7 |
| 20260509140203 | 72 | 107 | 1.0 | 6.0 | 0.00 | 0.00 | 0.00 | 70 | 1016.6 |
| 20260509140103 | 72 | 103 | 1.0 | 6.0 | 0.00 | 0.00 | 0.00 | 70 | 1016.7 |
| 20260509140004 | 72 | 107 | 1.0 | 6.0 | 0.00 | 0.00 | 0.00 | 70 | 1016.6 |
| 20260509135903 | 72 | 109 | 1.0 | 6.0 | 0.00 | 0.00 | 0.00 | 70 | 1016.5 |
| 20260509135803 | 72 | 108 | 1.0 | 6.0 | 0.00 | 0.00 | 0.00 | 70 | 1016.7 |
| 20260509135703 | 72 | 107 | 1.0 | 6.0 | 0.00 | 0.00 | 0.00 | 70 | 1016.7 |
| 20260509135603 | 72 | 108 | 1.0 | 6.0 | 0.00 | 0.00 | 0.00 | 70 | 1016.7 |
| 20260509135503 | 72 | 107 | 1.0 | 6.0 | 0.00 | 0.00 | 0.00 | 70 | 1016.7 |
| 20260509135403 | 72 | 107 | 1.0 | 6.0 | 0.00 | 0.00 | 0.00 | 70 | 1016.6 |
| 20260509135306 | 72 | 106 | 1.0 | 6.0 | 0.00 | 0.00 | 0.00 | 70 | 1016.6 |
| 20260509135203 | 72 | 103 | 1.0 | 6.0 | 0.00 | 0.00 | 0.00 | 71 | 1016.6 |
| 20260509135103 | 72 | 108 | 1.0 | 6.0 | 0.00 | 0.00 | 0.00 | 71 | 1016.8 |
| 20260509135003 | 72 | 104 | 1.0 | 8.0 | 0.00 | 0.00 | 0.00 | 71 | 1016.8 |
| 20260509134903 | 72 | 105 | 1.0 | 8.0 | 0.00 | 0.00 | 0.00 | 71 | 1016.7 |
| 20260509134803 | 72 | 104 | 1.0 | 8.0 | 0.00 | 0.00 | 0.00 | 71 | 1016.6 |
| 20260509134703 | 72 | 105 | 1.0 | 8.0 | 0.00 | 0.00 | 0.00 | 71 | 1016.6 |
| 20260509134603 | 72 | 104 | 1.0 | 8.0 | 0.00 | 0.00 | 0.00 | 71 | 1016.7 |
| 20260509134503 | 72 | 104 | 1.0 | 8.0 | 0.00 | 0.00 | 0.00 | 71 | 1016.6 |
| 20260509134403 | 72 | 109 | 1.0 | 8.0 | 0.00 | 0.00 | 0.00 | 71 | 1016.7 |
| 20260509134303 | 72 | 109 | 1.0 | 8.0 | 0.00 | 0.00 | 0.00 | 71 | 1016.7 |
| 20260509134203 | 72 | 110 | 1.0 | 8.0 | 0.00 | 0.00 | 0.00 | 71 | 1016.8 |
| 20260509134103 | 72 | 111 | 1.0 | 8.0 | 0.00 | 0.00 | 0.00 | 70 | 1016.7 |
| 20260509134003 | 72 | 115 | 1.0 | 4.0 | 0.00 | 0.00 | 0.00 | 70 | 1016.8 |
| 20260509133903 | 72 | 112 | 1.0 | 4.0 | 0.00 | 0.00 | 0.00 | 70 | 1016.8 |
| 20260509133803 | 72 | 111 | 1.0 | 4.0 | 0.00 | 0.00 | 0.00 | 70 | 1016.8 |
| 20260509133703 | 72 | 112 | 1.0 | 4.0 | 0.00 | 0.00 | 0.00 | 70 | 1016.8 |
| 20260509133603 | 72 | 113 | 1.0 | 4.0 | 0.00 | 0.00 | 0.00 | 70 | 1016.7 |
| 20260509133503 | 72 | 112 | 1.0 | 4.0 | 0.00 | 0.00 | 0.00 | 70 | 1016.7 |
| 20260509133403 | 72 | 106 | 1.0 | 4.0 | 0.00 | 0.00 | 0.00 | 70 | 1016.7 |
| 20260509133303 | 72 | 108 | 1.0 | 4.0 | 0.00 | 0.00 | 0.00 | 70 | 1016.7 |
| 20260509133203 | 72 | 107 | 1.0 | 4.0 | 0.00 | 0.00 | 0.00 | 70 | 1016.8 |
| 20260509133103 | 72 | 108 | 1.0 | 4.0 | 0.00 | 0.00 | 0.00 | 70 | 1016.8 |
| 20260509133003 | 72 | 108 | 1.0 | 4.0 | 0.00 | 0.00 | 0.00 | 70 | 1016.7 |
| 20260509132903 | 72 | 107 | 1.0 | 7.0 | 0.00 | 0.00 | 0.00 | 70 | 1016.8 |
| 20260509132803 | 72 | 109 | 1.0 | 7.0 | 0.00 | 0.00 | 0.00 | 70 | 1016.7 |
| 20260509132703 | 72 | 109 | 1.0 | 7.0 | 0.00 | 0.00 | 0.00 | 70 | 1016.8 |
| 20260509132603 | 72 | 112 | 1.0 | 7.0 | 0.00 | 0.00 | 0.00 | 70 | 1016.8 |
| 20260509132503 | 72 | 112 | 1.0 | 7.0 | 0.00 | 0.00 | 0.00 | 70 | 1016.8 |
| 20260509132403 | 72 | 112 | 1.0 | 7.0 | 0.00 | 0.00 | 0.00 | 70 | 1016.7 |
| 20260509132306 | 72 | 110 | 1.0 | 7.0 | 0.00 | 0.00 | 0.00 | 70 | 1016.7 |
| 20260509132204 | 72 | 110 | 1.0 | 7.0 | 0.00 | 0.00 | 0.00 | 70 | 1016.8 |
| 20260509132104 | 72 | 109 | 1.0 | 7.0 | 0.00 | 0.00 | 0.00 | 70 | 1016.8 |
| 20260509132004 | 72 | 108 | 1.0 | 7.0 | 0.00 | 0.00 | 0.00 | 70 | 1016.7 |
| 20260509131904 | 72 | 110 | 1.0 | 5.0 | 0.00 | 0.00 | 0.00 | 70 | 1016.6 |
| 20260509131804 | 72 | 110 | 1.0 | 5.0 | 0.00 | 0.00 | 0.00 | 70 | 1016.7 |
| 20260509131704 | 72 | 110 | 1.0 | 5.0 | 0.00 | 0.00 | 0.00 | 70 | 1016.7 |
| 20260509131604 | 72 | 109 | 1.0 | 5.0 | 0.00 | 0.00 | 0.00 | 70 | 1016.7 |
| 20260509131504 | 72 | 107 | 1.0 | 5.0 | 0.00 | 0.00 | 0.00 | 70 | 1016.7 |
| 20260509131404 | 72 | 107 | 1.0 | 5.0 | 0.00 | 0.00 | 0.00 | 70 | 1016.7 |
| 20260509131304 | 72 | 109 | 1.0 | 5.0 | 0.00 | 0.00 | 0.00 | 70 | 1016.7 |
| 20260509131204 | 72 | 112 | 1.0 | 4.0 | 0.00 | 0.00 | 0.00 | 70 | 1016.8 |
| 20260509131104 | 72 | 113 | 1.0 | 4.0 | 0.00 | 0.00 | 0.00 | 70 | 1016.8 |
| 20260509131004 | 72 | 114 | 1.0 | 4.0 | 0.00 | 0.00 | 0.00 | 70 | 1016.7 |
| 20260509130904 | 72 | 112 | 1.0 | 4.0 | 0.00 | 0.00 | 0.00 | 70 | 1016.8 |
| 20260509130804 | 72 | 113 | 1.0 | 4.0 | 0.00 | 0.00 | 0.00 | 70 | 1016.8 |
| 20260509130704 | 72 | 111 | 1.0 | 4.0 | 0.00 | 0.00 | 0.00 | 70 | 1016.7 |
| 20260509130604 | 72 | 112 | 1.0 | 4.0 | 0.00 | 0.00 | 0.00 | 70 | 1016.8 |
| 20260509130504 | 72 | 108 | 1.0 | 6.0 | 0.00 | 0.00 | 0.00 | 70 | 1016.8 |
| 20260509130404 | 72 | 108 | 1.0 | 6.0 | 0.00 | 0.00 | 0.00 | 71 | 1016.7 |
| 20260509130304 | 72 | 106 | 1.0 | 6.0 | 0.00 | 0.00 | 0.00 | 71 | 1016.7 |
| 20260509130204 | 72 | 105 | 1.0 | 6.0 | 0.00 | 0.00 | 0.00 | 71 | 1016.7 |
| 20260509130104 | 72 | 106 | 1.0 | 6.0 | 0.00 | 0.00 | 0.00 | 71 | 1016.7 |
| 20260509130004 | 72 | 105 | 1.0 | 6.0 | 0.00 | 0.00 | 0.00 | 71 | 1016.7 |
| 20260509125904 | 72 | 106 | 1.0 | 6.0 | 0.00 | 0.00 | 0.00 | 71 | 1016.8 |
| 20260509125804 | 72 | 108 | 1.0 | 6.0 | 0.00 | 0.00 | 0.00 | 71 | 1016.8 |
| 20260509125704 | 72 | 109 | 1.0 | 6.0 | 0.00 | 0.00 | 0.00 | 71 | 1016.6 |
| 20260509125604 | 72 | 109 | 2.0 | 6.0 | 0.00 | 0.00 | 0.00 | 71 | 1016.6 |
| 20260509125504 | 72 | 111 | 1.0 | 6.0 | 0.00 | 0.00 | 0.00 | 71 | 1016.6 |
| 20260509125404 | 72 | 111 | 2.0 | 6.0 | 0.00 | 0.00 | 0.00 | 71 | 1016.7 |
| 20260509125307 | 72 | 111 | 2.0 | 6.0 | 0.00 | 0.00 | 0.00 | 71 | 1016.7 |
| 20260509125204 | 72 | 109 | 2.0 | 6.0 | 0.00 | 0.00 | 0.00 | 71 | 1016.7 |
| 20260509125104 | 72 | 108 | 1.0 | 6.0 | 0.00 | 0.00 | 0.00 | 71 | 1016.7 |
| 20260509125004 | 72 | 108 | 2.0 | 6.0 | 0.00 | 0.00 | 0.00 | 70 | 1016.8 |
| 20260509124904 | 72 | 108 | 2.0 | 6.0 | 0.00 | 0.00 | 0.00 | 71 | 1016.8 |
| 20260509124803 | 72 | 106 | 2.0 | 6.0 | 0.00 | 0.00 | 0.00 | 71 | 1016.8 |
| 20260509124704 | 72 | 104 | 2.0 | 6.0 | 0.00 | 0.00 | 0.00 | 71 | 1016.8 |
| 20260509124604 | 72 | 102 | 2.0 | 6.0 | 0.00 | 0.00 | 0.00 | 71 | 1016.7 |
| 20260509124504 | 72 | 103 | 2.0 | 6.0 | 0.00 | 0.00 | 0.00 | 71 | 1016.8 |
| 20260509124404 | 72 | 103 | 2.0 | 7.0 | 0.00 | 0.00 | 0.00 | 71 | 1016.8 |
| 20260509124303 | 72 | 104 | 2.0 | 7.0 | 0.00 | 0.00 | 0.00 | 71 | 1016.8 |
| 20260509124203 | 72 | 105 | 2.0 | 8.0 | 0.00 | 0.00 | 0.00 | 71 | 1016.7 |
| 20260509124103 | 72 | 106 | 2.0 | 8.0 | 0.00 | 0.00 | 0.00 | 71 | 1016.8 |
| 20260509124003 | 72 | 107 | 2.0 | 8.0 | 0.00 | 0.00 | 0.00 | 70 | 1016.8 |
| 20260509123904 | 72 | 106 | 2.0 | 8.0 | 0.00 | 0.00 | 0.00 | 70 | 1016.8 |
| 20260509123804 | 72 | 107 | 2.0 | 8.0 | 0.00 | 0.00 | 0.00 | 70 | 1016.9 |
| 20260509123703 | 72 | 109 | 2.0 | 8.0 | 0.00 | 0.00 | 0.00 | 70 | 1016.8 |
| 20260509123604 | 72 | 109 | 2.0 | 8.0 | 0.00 | 0.00 | 0.00 | 70 | 1016.7 |
| 20260509123503 | 72 | 108 | 2.0 | 8.0 | 0.00 | 0.00 | 0.00 | 70 | 1016.8 |
| 20260509123403 | 72 | 108 | 2.0 | 8.0 | 0.00 | 0.00 | 0.00 | 70 | 1016.7 |
| 20260509123303 | 72 | 107 | 2.0 | 8.0 | 0.00 | 0.00 | 0.00 | 70 | 1016.7 |
| 20260509123203 | 72 | 108 | 2.0 | 6.0 | 0.00 | 0.00 | 0.00 | 70 | 1016.7 |
| 20260509123103 | 72 | 108 | 2.0 | 6.0 | 0.00 | 0.00 | 0.00 | 70 | 1016.6 |
| 20260509123003 | 72 | 107 | 2.0 | 6.0 | 0.00 | 0.00 | 0.00 | 70 | 1016.6 |
| 20260509122903 | 72 | 107 | 2.0 | 7.0 | 0.00 | 0.00 | 0.00 | 70 | 1016.6 |
| 20260509122803 | 72 | 108 | 2.0 | 7.0 | 0.00 | 0.00 | 0.00 | 70 | 1016.6 |
| 20260509122703 | 72 | 106 | 2.0 | 7.0 | 0.00 | 0.00 | 0.00 | 70 | 1016.7 |
| 20260509122603 | 72 | 107 | 2.0 | 7.0 | 0.00 | 0.00 | 0.00 | 70 | 1016.7 |
| 20260509122503 | 72 | 108 | 2.0 | 7.0 | 0.00 | 0.00 | 0.00 | 70 | 1016.6 |
| 20260509122403 | 72 | 110 | 2.0 | 7.0 | 0.00 | 0.00 | 0.00 | 70 | 1016.7 |
| 20260509122306 | 72 | 109 | 2.0 | 7.0 | 0.00 | 0.00 | 0.00 | 69 | 1016.6 |
| 20260509122203 | 72 | 109 | 3.0 | 7.0 | 0.00 | 0.00 | 0.00 | 69 | 1016.6 |
| 20260509122103 | 72 | 109 | 3.0 | 7.0 | 0.00 | 0.00 | 0.00 | 69 | 1016.6 |
| 20260509122003 | 72 | 110 | 3.0 | 7.0 | 0.00 | 0.00 | 0.00 | 69 | 1016.6 |
| 20260509121903 | 73 | 112 | 2.0 | 7.0 | 0.00 | 0.00 | 0.00 | 69 | 1016.7 |
| 20260509121803 | 72 | 111 | 2.0 | 7.0 | 0.00 | 0.00 | 0.00 | 69 | 1016.6 |
| 20260509121703 | 73 | 112 | 2.0 | 7.0 | 0.00 | 0.00 | 0.00 | 69 | 1016.6 |
| 20260509121603 | 73 | 111 | 2.0 | 7.0 | 0.00 | 0.00 | 0.00 | 69 | 1016.7 |
| 20260509121503 | 73 | 110 | 2.0 | 7.0 | 0.00 | 0.00 | 0.00 | 69 | 1016.6 |
| 20260509121403 | 73 | 109 | 2.0 | 7.0 | 0.00 | 0.00 | 0.00 | 69 | 1016.6 |
| 20260509121303 | 73 | 110 | 2.0 | 6.0 | 0.00 | 0.00 | 0.00 | 69 | 1016.6 |
| 20260509121203 | 73 | 110 | 2.0 | 5.0 | 0.00 | 0.00 | 0.00 | 69 | 1016.6 |
| 20260509121103 | 73 | 111 | 1.0 | 5.0 | 0.00 | 0.00 | 0.00 | 69 | 1016.6 |
| 20260509121003 | 73 | 110 | 1.0 | 5.0 | 0.00 | 0.00 | 0.00 | 69 | 1016.6 |
| 20260509120903 | 73 | 108 | 1.0 | 5.0 | 0.00 | 0.00 | 0.00 | 69 | 1016.6 |
| 20260509120803 | 73 | 108 | 1.0 | 5.0 | 0.00 | 0.00 | 0.00 | 69 | 1016.5 |
| 20260509120703 | 73 | 107 | 1.0 | 5.0 | 0.00 | 0.00 | 0.00 | 69 | 1016.7 |
| 20260509120603 | 73 | 107 | 1.0 | 5.0 | 0.00 | 0.00 | 0.00 | 68 | 1016.6 |
| 20260509120503 | 73 | 109 | 2.0 | 5.0 | 0.00 | 0.00 | 0.00 | 68 | 1016.7 |
| 20260509120403 | 73 | 107 | 1.0 | 5.0 | 0.00 | 0.00 | 0.00 | 68 | 1016.7 |
| 20260509120303 | 73 | 110 | 2.0 | 5.0 | 0.00 | 0.00 | 0.00 | 68 | 1016.7 |
| 20260509120203 | 73 | 109 | 2.0 | 5.0 | 0.00 | 0.00 | 0.00 | 68 | 1016.7 |
| 20260509120003 | 74 | 108 | 1.0 | 5.0 | 0.00 | 0.00 | 0.00 | 68 | 1016.5 |
| 20260509115903 | 74 | 108 | 1.0 | 5.0 | 0.00 | 0.00 | 0.00 | 68 | 1016.6 |
| 20260509115803 | 73 | 109 | 1.0 | 5.0 | 0.00 | 0.00 | 0.00 | 68 | 1016.7 |
| 20260509115703 | 74 | 109 | 1.0 | 5.0 | 0.00 | 0.00 | 0.00 | 68 | 1016.6 |
| 20260509115603 | 74 | 109 | 1.0 | 5.0 | 0.00 | 0.00 | 0.00 | 67 | 1016.6 |
| 20260509115503 | 74 | 109 | 1.0 | 5.0 | 0.00 | 0.00 | 0.00 | 67 | 1016.7 |
| 20260509115403 | 74 | 108 | 1.0 | 5.0 | 0.00 | 0.00 | 0.00 | 67 | 1016.6 |
| 20260509115306 | 74 | 104 | 0.0 | 5.0 | 0.00 | 0.00 | 0.00 | 67 | 1016.7 |
| 20260509115203 | 74 | 103 | 0.0 | 5.0 | 0.00 | 0.00 | 0.00 | 67 | 1016.6 |
| 20260509115103 | 74 | 104 | 0.0 | 5.0 | 0.00 | 0.00 | 0.00 | 67 | 1016.8 |
| 20260509115003 | 74 | 104 | 0.0 | 5.0 | 0.00 | 0.00 | 0.00 | 67 | 1016.8 |
| 20260509114903 | 74 | 106 | 0.0 | 5.0 | 0.00 | 0.00 | 0.00 | 67 | 1016.8 |
| 20260509114803 | 73 | 113 | 1.0 | 5.0 | 0.00 | 0.00 | 0.00 | 68 | 1016.8 |
| 20260509114704 | 73 | 111 | 1.0 | 5.0 | 0.00 | 0.00 | 0.00 | 67 | 1016.8 |
| 20260509114603 | 73 | 111 | 1.0 | 5.0 | 0.00 | 0.00 | 0.00 | 68 | 1016.8 |
| 20260509114503 | 73 | 110 | 1.0 | 5.0 | 0.00 | 0.00 | 0.00 | 68 | 1016.8 |
| 20260509114403 | 73 | 113 | 1.0 | 5.0 | 0.00 | 0.00 | 0.00 | 68 | 1016.8 |
| 20260509114303 | 73 | 113 | 1.0 | 5.0 | 0.00 | 0.00 | 0.00 | 68 | 1016.9 |
| 20260509114203 | 73 | 111 | 1.0 | 5.0 | 0.00 | 0.00 | 0.00 | 68 | 1016.9 |
| 20260509114103 | 73 | 112 | 1.0 | 5.0 | 0.00 | 0.00 | 0.00 | 68 | 1016.8 |
| 20260509114003 | 73 | 112 | 1.0 | 5.0 | 0.00 | 0.00 | 0.00 | 68 | 1016.8 |
| 20260509113903 | 73 | 112 | 1.0 | 5.0 | 0.00 | 0.00 | 0.00 | 68 | 1016.8 |
| 20260509113803 | 73 | 108 | 1.0 | 5.0 | 0.00 | 0.00 | 0.00 | 68 | 1016.8 |
| 20260509113703 | 73 | 110 | 1.0 | 5.0 | 0.00 | 0.00 | 0.00 | 68 | 1016.8 |
| 20260509113603 | 73 | 110 | 1.0 | 5.0 | 0.00 | 0.00 | 0.00 | 69 | 1016.8 |
| 20260509113503 | 73 | 110 | 1.0 | 5.0 | 0.00 | 0.00 | 0.00 | 69 | 1016.8 |
| 20260509113403 | 73 | 111 | 1.0 | 5.0 | 0.00 | 0.00 | 0.00 | 69 | 1016.8 |
| 20260509113303 | 73 | 109 | 1.0 | 6.0 | 0.00 | 0.00 | 0.00 | 69 | 1016.8 |
| 20260509113203 | 73 | 110 | 1.0 | 6.0 | 0.00 | 0.00 | 0.00 | 69 | 1016.8 |
| 20260509113103 | 73 | 108 | 1.0 | 6.0 | 0.00 | 0.00 | 0.00 | 69 | 1016.8 |
| 20260509113003 | 73 | 107 | 1.0 | 6.0 | 0.00 | 0.00 | 0.00 | 69 | 1016.8 |
| 20260509112903 | 73 | 107 | 1.0 | 6.0 | 0.00 | 0.00 | 0.00 | 69 | 1016.8 |
| 20260509112803 | 73 | 107 | 1.0 | 6.0 | 0.00 | 0.00 | 0.00 | 69 | 1016.8 |
| 20260509112703 | 73 | 107 | 1.0 | 6.0 | 0.00 | 0.00 | 0.00 | 69 | 1016.9 |
| 20260509112603 | 73 | 105 | 1.0 | 6.0 | 0.00 | 0.00 | 0.00 | 69 | 1016.9 |
| 20260509112503 | 73 | 105 | 1.0 | 6.0 | 0.00 | 0.00 | 0.00 | 69 | 1016.9 |
| 20260509112403 | 73 | 106 | 1.0 | 6.0 | 0.00 | 0.00 | 0.00 | 69 | 1016.9 |
| 20260509112306 | 73 | 107 | 1.0 | 6.0 | 0.00 | 0.00 | 0.00 | 69 | 1016.9 |
| 20260509112203 | 73 | 107 | 1.0 | 6.0 | 0.00 | 0.00 | 0.00 | 69 | 1016.8 |
| 20260509112103 | 73 | 106 | 1.0 | 6.0 | 0.00 | 0.00 | 0.00 | 69 | 1016.9 |
| 20260509112003 | 73 | 105 | 1.0 | 6.0 | 0.00 | 0.00 | 0.00 | 68 | 1016.8 |
| 20260509111903 | 73 | 105 | 1.0 | 6.0 | 0.00 | 0.00 | 0.00 | 69 | 1016.9 |
| 20260509111803 | 73 | 103 | 1.0 | 6.0 | 0.00 | 0.00 | 0.00 | 69 | 1016.8 |
| 20260509111703 | 73 | 100 | 1.0 | 6.0 | 0.00 | 0.00 | 0.00 | 69 | 1016.8 |
| 20260509111603 | 73 | 101 | 1.0 | 6.0 | 0.00 | 0.00 | 0.00 | 69 | 1016.9 |
| 20260509111503 | 72 | 100 | 1.0 | 6.0 | 0.00 | 0.00 | 0.00 | 69 | 1016.9 |
| 20260509111403 | 72 | 99 | 1.0 | 6.0 | 0.00 | 0.00 | 0.00 | 69 | 1016.8 |
| 20260509111303 | 72 | 100 | 1.0 | 6.0 | 0.00 | 0.00 | 0.00 | 69 | 1016.9 |
| 20260509111203 | 72 | 99 | 1.0 | 7.0 | 0.00 | 0.00 | 0.00 | 69 | 1016.9 |
| 20260509111103 | 72 | 101 | 1.0 | 7.0 | 0.00 | 0.00 | 0.00 | 69 | 1016.9 |
| 20260509111003 | 72 | 99 | 1.0 | 7.0 | 0.00 | 0.00 | 0.00 | 69 | 1016.9 |
| 20260509110903 | 72 | 99 | 1.0 | 7.0 | 0.00 | 0.00 | 0.00 | 69 | 1016.9 |
| 20260509110804 | 72 | 97 | 1.0 | 7.0 | 0.00 | 0.00 | 0.00 | 70 | 1017.0 |
| 20260509110704 | 72 | 100 | 1.0 | 7.0 | 0.00 | 0.00 | 0.00 | 70 | 1017.0 |
| 20260509110604 | 72 | 101 | 1.0 | 7.0 | 0.00 | 0.00 | 0.00 | 70 | 1016.9 |
| 20260509110504 | 72 | 105 | 1.0 | 7.0 | 0.00 | 0.00 | 0.00 | 70 | 1016.8 |
| 20260509110404 | 71 | 107 | 1.0 | 7.0 | 0.00 | 0.00 | 0.00 | 70 | 1016.9 |
| 20260509110304 | 71 | 108 | 1.0 | 7.0 | 0.00 | 0.00 | 0.00 | 69 | 1016.9 |
| 20260509110204 | 71 | 107 | 1.0 | 7.0 | 0.00 | 0.00 | 0.00 | 69 | 1016.9 |
| 20260509110104 | 71 | 109 | 1.0 | 6.0 | 0.00 | 0.00 | 0.00 | 69 | 1017.0 |
| 20260509110004 | 71 | 113 | 1.0 | 6.0 | 0.00 | 0.00 | 0.00 | 70 | 1016.9 |
| 20260509105904 | 71 | 113 | 1.0 | 6.0 | 0.00 | 0.00 | 0.00 | 69 | 1016.9 |
| 20260509105804 | 71 | 119 | 0.0 | 6.0 | 0.00 | 0.00 | 0.00 | 69 | 1016.9 |
| 20260509105704 | 71 | 119 | 0.0 | 6.0 | 0.00 | 0.00 | 0.00 | 69 | 1016.9 |
| 20260509105604 | 71 | 119 | 0.0 | 6.0 | 0.00 | 0.00 | 0.00 | 70 | 1016.8 |
| 20260509105504 | 71 | 114 | 0.0 | 4.0 | 0.00 | 0.00 | 0.00 | 70 | 1016.9 |
| 20260509105404 | 71 | 111 | 0.0 | 4.0 | 0.00 | 0.00 | 0.00 | 70 | 1016.9 |
| 20260509105306 | 71 | 115 | 0.0 | 4.0 | 0.00 | 0.00 | 0.00 | 70 | 1016.8 |
| 20260509105204 | 71 | 114 | 1.0 | 4.0 | 0.00 | 0.00 | 0.00 | 70 | 1016.9 |
| 20260509105104 | 71 | 113 | 1.0 | 4.0 | 0.00 | 0.00 | 0.00 | 70 | 1016.9 |
| 20260509105004 | 71 | 112 | 1.0 | 6.0 | 0.00 | 0.00 | 0.00 | 70 | 1016.9 |
| 20260509104904 | 71 | 118 | 1.0 | 6.0 | 0.00 | 0.00 | 0.00 | 70 | 1016.9 |
| 20260509104804 | 71 | 122 | 1.0 | 6.0 | 0.00 | 0.00 | 0.00 | 70 | 1016.9 |
| 20260509104704 | 71 | 144 | 1.0 | 6.0 | 0.00 | 0.00 | 0.00 | 70 | 1016.9 |
| 20260509104604 | 71 | 200 | 1.0 | 6.0 | 0.00 | 0.00 | 0.00 | 70 | 1016.9 |
| 20260509104504 | 71 | 235 | 1.0 | 7.0 | 0.00 | 0.00 | 0.00 | 71 | 1016.9 |
| 20260509104404 | 71 | 233 | 1.0 | 7.0 | 0.00 | 0.00 | 0.00 | 71 | 1016.9 |
| 20260509104304 | 71 | 270 | 2.0 | 7.0 | 0.00 | 0.00 | 0.00 | 71 | 1016.9 |
| 20260509104204 | 71 | 278 | 2.0 | 7.0 | 0.00 | 0.00 | 0.00 | 71 | 1016.9 |
| 20260509104108 | 71 | 280 | 3.0 | 10.0 | 0.00 | 0.00 | 0.00 | 71 | 1016.9 |
| 20260509104004 | 71 | 283 | 3.0 | 10.0 | 0.00 | 0.00 | 0.00 | 71 | 1016.9 |
| 20260509103904 | 71 | 284 | 3.0 | 10.0 | 0.00 | 0.00 | 0.00 | 71 | 1016.9 |
| 20260509103804 | 71 | 282 | 3.0 | 10.0 | 0.00 | 0.00 | 0.00 | 70 | 1016.9 |
| 20260509103704 | 71 | 281 | 3.0 | 10.0 | 0.00 | 0.00 | 0.00 | 71 | 1016.9 |
| 20260509103604 | 71 | 282 | 3.0 | 10.0 | 0.00 | 0.00 | 0.00 | 71 | 1016.9 |
| 20260509103504 | 71 | 283 | 3.0 | 10.0 | 0.00 | 0.00 | 0.00 | 71 | 1017.0 |
| 20260509103404 | 71 | 283 | 3.0 | 10.0 | 0.00 | 0.00 | 0.00 | 71 | 1016.9 |
| 20260509103304 | 71 | 285 | 3.0 | 10.0 | 0.00 | 0.00 | 0.00 | 71 | 1016.9 |
| 20260509103204 | 71 | 285 | 2.0 | 10.0 | 0.00 | 0.00 | 0.00 | 71 | 1016.9 |
| 20260509103104 | 71 | 285 | 2.0 | 8.0 | 0.00 | 0.00 | 0.00 | 71 | 1016.9 |
| 20260509103004 | 71 | 271 | 1.0 | 6.0 | 0.00 | 0.00 | 0.00 | 71 | 1016.9 |
| 20260509102904 | 71 | 233 | 1.0 | 6.0 | 0.00 | 0.00 | 0.00 | 71 | 1017.0 |
| 20260509102804 | 71 | 273 | 1.0 | 5.0 | 0.00 | 0.00 | 0.00 | 71 | 1017.0 |
| 20260509102704 | 71 | 253 | 1.0 | 5.0 | 0.00 | 0.00 | 0.00 | 72 | 1017.0 |
| 20260509102604 | 71 | 156 | 1.0 | 6.0 | 0.00 | 0.00 | 0.00 | 72 | 1017.0 |
| 20260509102504 | 71 | 138 | 1.0 | 6.0 | 0.00 | 0.00 | 0.00 | 71 | 1017.0 |
| 20260509102404 | 71 | 126 | 1.0 | 6.0 | 0.00 | 0.00 | 0.00 | 72 | 1017.0 |
| 20260509102305 | 71 | 124 | 1.0 | 6.0 | 0.00 | 0.00 | 0.00 | 71 | 1017.0 |
| 20260509102204 | 71 | 132 | 1.0 | 6.0 | 0.00 | 0.00 | 0.00 | 72 | 1017.0 |
| 20260509102104 | 71 | 136 | 1.0 | 6.0 | 0.00 | 0.00 | 0.00 | 72 | 1017.0 |
| 20260509102004 | 71 | 154 | 1.0 | 6.0 | 0.00 | 0.00 | 0.00 | 72 | 1016.9 |
| 20260509101904 | 70 | 201 | 2.0 | 6.0 | 0.00 | 0.00 | 0.00 | 72 | 1017.0 |
| 20260509101804 | 70 | 190 | 1.0 | 6.0 | 0.00 | 0.00 | 0.00 | 72 | 1017.0 |
| 20260509101703 | 70 | 267 | 2.0 | 9.0 | 0.00 | 0.00 | 0.00 | 72 | 1016.9 |
| 20260509101603 | 70 | 266 | 2.0 | 9.0 | 0.00 | 0.00 | 0.00 | 72 | 1017.0 |
| 20260509101504 | 70 | 261 | 2.0 | 9.0 | 0.00 | 0.00 | 0.00 | 72 | 1017.0 |
| 20260509101404 | 70 | 275 | 2.0 | 9.0 | 0.00 | 0.00 | 0.00 | 72 | 1017.1 |
| 20260509101304 | 70 | 282 | 2.0 | 9.0 | 0.00 | 0.00 | 0.00 | 72 | 1017.0 |
| 20260509101203 | 70 | 286 | 3.0 | 11.0 | 0.00 | 0.00 | 0.00 | 72 | 1017.0 |
| 20260509101104 | 70 | 288 | 3.0 | 11.0 | 0.00 | 0.00 | 0.00 | 72 | 1017.0 |
| 20260509101004 | 70 | 289 | 4.0 | 11.0 | 0.00 | 0.00 | 0.00 | 72 | 1017.1 |
| 20260509100903 | 70 | 289 | 4.0 | 11.0 | 0.00 | 0.00 | 0.00 | 72 | 1017.0 |
| 20260509100804 | 70 | 288 | 4.0 | 11.0 | 0.00 | 0.00 | 0.00 | 72 | 1016.9 |
| 20260509100703 | 70 | 290 | 4.0 | 11.0 | 0.00 | 0.00 | 0.00 | 72 | 1016.9 |
| 20260509100603 | 70 | 289 | 4.0 | 11.0 | 0.00 | 0.00 | 0.00 | 72 | 1016.9 |
| 20260509100503 | 70 | 289 | 3.0 | 11.0 | 0.00 | 0.00 | 0.00 | 72 | 1016.9 |
| 20260509100403 | 70 | 288 | 3.0 | 11.0 | 0.00 | 0.00 | 0.00 | 72 | 1016.8 |
| 20260509100303 | 70 | 288 | 3.0 | 11.0 | 0.00 | 0.00 | 0.00 | 72 | 1016.9 |
| 20260509100203 | 71 | 283 | 2.0 | 9.0 | 0.00 | 0.00 | 0.00 | 72 | 1016.9 |
| 20260509100103 | 71 | 277 | 2.0 | 9.0 | 0.00 | 0.00 | 0.00 | 72 | 1016.9 |
| 20260509100004 | 71 | 249 | 2.0 | 9.0 | 0.00 | 0.00 | 0.00 | 72 | 1016.9 |
| 20260509095903 | 71 | 223 | 2.0 | 9.0 | 0.00 | 0.00 | 0.00 | 71 | 1016.8 |
| 20260509095803 | 71 | 240 | 2.0 | 9.0 | 0.00 | 0.00 | 0.00 | 71 | 1016.9 |
| 20260509095703 | 71 | 139 | 2.0 | 8.0 | 0.00 | 0.00 | 0.00 | 71 | 1016.9 |
| 20260509095603 | 71 | 129 | 1.0 | 6.0 | 0.00 | 0.00 | 0.00 | 71 | 1017.0 |
| 20260509095503 | 71 | 129 | 1.0 | 6.0 | 0.00 | 0.00 | 0.00 | 71 | 1017.0 |
| 20260509095403 | 71 | 124 | 1.0 | 6.0 | 0.00 | 0.00 | 0.00 | 71 | 1017.0 |
| 20260509095306 | 71 | 124 | 1.0 | 6.0 | 0.00 | 0.00 | 0.00 | 71 | 1016.9 |
| 20260509095203 | 71 | 117 | 1.0 | 6.0 | 0.00 | 0.00 | 0.00 | 72 | 1016.9 |
| 20260509095103 | 71 | 132 | 1.0 | 6.0 | 0.00 | 0.00 | 0.00 | 72 | 1017.0 |
| 20260509095003 | 71 | 88 | 1.0 | 7.0 | 0.00 | 0.00 | 0.00 | 72 | 1017.1 |
| 20260509094903 | 71 | 88 | 1.0 | 7.0 | 0.00 | 0.00 | 0.00 | 72 | 1017.0 |
| 20260509094803 | 71 | 347 | 2.0 | 7.0 | 0.00 | 0.00 | 0.00 | 72 | 1016.9 |
| 20260509094703 | 71 | 298 | 2.0 | 7.0 | 0.00 | 0.00 | 0.00 | 72 | 1016.9 |
| 20260509094603 | 71 | 298 | 2.0 | 7.0 | 0.00 | 0.00 | 0.00 | 71 | 1016.9 |
| 20260509094503 | 71 | 300 | 2.0 | 7.0 | 0.00 | 0.00 | 0.00 | 71 | 1016.9 |
| 20260509094403 | 71 | 299 | 2.0 | 7.0 | 0.00 | 0.00 | 0.00 | 71 | 1017.0 |
| 20260509094303 | 71 | 296 | 2.0 | 7.0 | 0.00 | 0.00 | 0.00 | 71 | 1016.9 |
| 20260509094203 | 71 | 296 | 2.0 | 7.0 | 0.00 | 0.00 | 0.00 | 71 | 1017.0 |
| 20260509094103 | 71 | 297 | 2.0 | 7.0 | 0.00 | 0.00 | 0.00 | 71 | 1016.9 |
| 20260509094003 | 71 | 288 | 2.0 | 7.0 | 0.00 | 0.00 | 0.00 | 71 | 1016.9 |
| 20260509093903 | 71 | 287 | 2.0 | 7.0 | 0.00 | 0.00 | 0.00 | 71 | 1016.9 |
| 20260509093803 | 71 | 285 | 1.0 | 7.0 | 0.00 | 0.00 | 0.00 | 71 | 1017.0 |
| 20260509093703 | 71 | 258 | 1.0 | 6.0 | 0.00 | 0.00 | 0.00 | 71 | 1016.9 |
| 20260509093603 | 71 | 237 | 1.0 | 6.0 | 0.00 | 0.00 | 0.00 | 71 | 1016.9 |
| 20260509093503 | 71 | 268 | 2.0 | 7.0 | 0.00 | 0.00 | 0.00 | 71 | 1016.9 |
| 20260509093403 | 71 | 267 | 1.0 | 7.0 | 0.00 | 0.00 | 0.00 | 71 | 1017.0 |
| 20260509093303 | 71 | 263 | 1.0 | 7.0 | 0.00 | 0.00 | 0.00 | 71 | 1017.0 |
| 20260509093203 | 71 | 255 | 1.0 | 7.0 | 0.00 | 0.00 | 0.00 | 71 | 1016.9 |
| 20260509093103 | 71 | 218 | 2.0 | 7.0 | 0.00 | 0.00 | 0.00 | 71 | 1016.9 |
| 20260509093003 | 71 | 236 | 2.0 | 7.0 | 0.00 | 0.00 | 0.00 | 71 | 1016.9 |
| 20260509092903 | 71 | 261 | 2.0 | 7.0 | 0.00 | 0.00 | 0.00 | 70 | 1016.9 |
| 20260509092803 | 71 | 284 | 2.0 | 10.0 | 0.00 | 0.00 | 0.00 | 70 | 1016.9 |
| 20260509092703 | 71 | 289 | 3.0 | 10.0 | 0.00 | 0.00 | 0.00 | 70 | 1016.9 |
| 20260509092603 | 71 | 291 | 3.0 | 10.0 | 0.00 | 0.00 | 0.00 | 70 | 1017.0 |
| 20260509092503 | 71 | 290 | 3.0 | 10.0 | 0.00 | 0.00 | 0.00 | 70 | 1017.0 |
| 20260509092403 | 71 | 290 | 3.0 | 10.0 | 0.00 | 0.00 | 0.00 | 70 | 1017.0 |
| 20260509092305 | 71 | 290 | 3.0 | 10.0 | 0.00 | 0.00 | 0.00 | 70 | 1017.0 |
| 20260509092203 | 71 | 292 | 3.0 | 10.0 | 0.00 | 0.00 | 0.00 | 69 | 1017.0 |
| 20260509092103 | 71 | 294 | 3.0 | 10.0 | 0.00 | 0.00 | 0.00 | 69 | 1016.9 |
| 20260509092003 | 71 | 294 | 3.0 | 10.0 | 0.00 | 0.00 | 0.00 | 68 | 1017.0 |
| 20260509091903 | 71 | 294 | 3.0 | 10.0 | 0.00 | 0.00 | 0.00 | 68 | 1016.9 |
| 20260509091803 | 71 | 294 | 3.0 | 10.0 | 0.00 | 0.00 | 0.00 | 68 | 1016.9 |
| 20260509091703 | 71 | 293 | 2.0 | 10.0 | 0.00 | 0.00 | 0.00 | 68 | 1016.9 |
| 20260509091603 | 71 | 294 | 2.0 | 7.0 | 0.00 | 0.00 | 0.00 | 67 | 1016.9 |
| 20260509091503 | 71 | 305 | 2.0 | 7.0 | 0.00 | 0.00 | 0.00 | 66 | 1016.9 |
| 20260509091403 | 71 | 299 | 2.0 | 7.0 | 0.00 | 0.00 | 0.00 | 66 | 1016.9 |
| 20260509091303 | 72 | 296 | 2.0 | 7.0 | 0.00 | 0.00 | 0.00 | 67 | 1016.9 |
| 20260509091203 | 72 | 295 | 2.0 | 7.0 | 0.00 | 0.00 | 0.00 | 67 | 1016.9 |
| 20260509091103 | 72 | 296 | 2.0 | 7.0 | 0.00 | 0.00 | 0.00 | 68 | 1016.9 |
| 20260509091003 | 72 | 296 | 2.0 | 7.0 | 0.00 | 0.00 | 0.00 | 68 | 1016.8 |
| 20260509090903 | 72 | 296 | 2.0 | 8.0 | 0.00 | 0.00 | 0.00 | 67 | 1016.8 |
| 20260509090803 | 72 | 295 | 2.0 | 8.0 | 0.00 | 0.00 | 0.00 | 67 | 1016.9 |
| 20260509090703 | 72 | 292 | 2.0 | 8.0 | 0.00 | 0.00 | 0.00 | 66 | 1016.8 |
| 20260509090603 | 72 | 295 | 2.0 | 8.0 | 0.00 | 0.00 | 0.00 | 66 | 1016.9 |
| 20260509090503 | 72 | 292 | 2.0 | 8.0 | 0.00 | 0.00 | 0.00 | 66 | 1016.9 |
| 20260509090403 | 72 | 295 | 2.0 | 8.0 | 0.00 | 0.00 | 0.00 | 66 | 1016.9 |
| 20260509090303 | 72 | 304 | 2.0 | 8.0 | 0.00 | 0.00 | 0.00 | 66 | 1016.8 |
| 20260509090203 | 72 | 301 | 2.0 | 8.0 | 0.00 | 0.00 | 0.00 | 66 | 1016.8 |
| 20260509090003 | 72 | 301 | 2.0 | 8.0 | 0.00 | 0.00 | 0.00 | 66 | 1016.9 |
| 20260509085903 | 72 | 329 | 1.0 | 7.0 | 0.00 | 0.00 | 0.00 | 66 | 1016.9 |
| 20260509085803 | 72 | 311 | 2.0 | 7.0 | 0.00 | 0.00 | 0.00 | 66 | 1016.9 |
| 20260509085703 | 72 | 307 | 2.0 | 7.0 | 0.00 | 0.00 | 0.00 | 66 | 1017.0 |
| 20260509085603 | 72 | 301 | 2.0 | 6.0 | 0.00 | 0.00 | 0.00 | 65 | 1016.9 |
| 20260509085503 | 72 | 306 | 2.0 | 6.0 | 0.00 | 0.00 | 0.00 | 65 | 1016.9 |
| 20260509085403 | 72 | 303 | 2.0 | 7.0 | 0.00 | 0.00 | 0.00 | 65 | 1016.9 |
| 20260509085306 | 72 | 302 | 2.0 | 7.0 | 0.00 | 0.00 | 0.00 | 64 | 1016.9 |
| 20260509085203 | 72 | 302 | 2.0 | 7.0 | 0.00 | 0.00 | 0.00 | 63 | 1017.0 |
| 20260509085103 | 72 | 302 | 3.0 | 7.0 | 0.00 | 0.00 | 0.00 | 63 | 1017.0 |
| 20260509085003 | 72 | 302 | 3.0 | 7.0 | 0.00 | 0.00 | 0.00 | 63 | 1016.9 |
| 20260509084903 | 72 | 300 | 3.0 | 7.0 | 0.00 | 0.00 | 0.00 | 63 | 1017.0 |
| 20260509084803 | 72 | 299 | 3.0 | 7.0 | 0.00 | 0.00 | 0.00 | 63 | 1017.0 |
| 20260509084703 | 72 | 299 | 3.0 | 7.0 | 0.00 | 0.00 | 0.00 | 63 | 1017.0 |
| 20260509084603 | 72 | 298 | 3.0 | 7.0 | 0.00 | 0.00 | 0.00 | 63 | 1016.9 |
| 20260509084503 | 72 | 297 | 3.0 | 7.0 | 0.00 | 0.00 | 0.00 | 64 | 1016.9 |
| 20260509084403 | 72 | 297 | 3.0 | 7.0 | 0.00 | 0.00 | 0.00 | 64 | 1016.9 |
| 20260509084303 | 72 | 296 | 3.0 | 7.0 | 0.00 | 0.00 | 0.00 | 64 | 1016.9 |
| 20260509084203 | 72 | 295 | 4.0 | 9.0 | 0.00 | 0.00 | 0.00 | 64 | 1016.9 |
| 20260509084103 | 72 | 294 | 4.0 | 10.0 | 0.00 | 0.00 | 0.00 | 64 | 1017.0 |
| 20260509084003 | 72 | 296 | 4.0 | 10.0 | 0.00 | 0.00 | 0.00 | 64 | 1016.9 |
| 20260509083903 | 72 | 296 | 4.0 | 10.0 | 0.00 | 0.00 | 0.00 | 64 | 1016.9 |
| 20260509083804 | 72 | 296 | 4.0 | 10.0 | 0.00 | 0.00 | 0.00 | 64 | 1016.9 |
| 20260509083704 | 72 | 297 | 4.0 | 10.0 | 0.00 | 0.00 | 0.00 | 64 | 1016.9 |
| 20260509083604 | 72 | 299 | 4.0 | 10.0 | 0.00 | 0.00 | 0.00 | 64 | 1016.9 |
| 20260509083504 | 72 | 299 | 4.0 | 10.0 | 0.00 | 0.00 | 0.00 | 64 | 1016.8 |
| 20260509083404 | 72 | 299 | 4.0 | 10.0 | 0.00 | 0.00 | 0.00 | 64 | 1016.8 |
| 20260509083304 | 72 | 300 | 3.0 | 10.0 | 0.00 | 0.00 | 0.00 | 64 | 1016.9 |
| 20260509083204 | 72 | 301 | 3.0 | 10.0 | 0.00 | 0.00 | 0.00 | 63 | 1016.8 |
| 20260509083104 | 72 | 303 | 2.0 | 8.0 | 0.00 | 0.00 | 0.00 | 64 | 1016.9 |
| 20260509083004 | 72 | 303 | 2.0 | 8.0 | 0.00 | 0.00 | 0.00 | 64 | 1017.0 |
| 20260509082904 | 72 | 301 | 2.0 | 8.0 | 0.00 | 0.00 | 0.00 | 64 | 1016.9 |
| 20260509082804 | 72 | 300 | 2.0 | 8.0 | 0.00 | 0.00 | 0.00 | 65 | 1017.0 |
| 20260509082704 | 72 | 297 | 2.0 | 8.0 | 0.00 | 0.00 | 0.00 | 65 | 1016.9 |
| 20260509082604 | 72 | 296 | 2.0 | 8.0 | 0.00 | 0.00 | 0.00 | 65 | 1017.0 |
| 20260509082504 | 72 | 300 | 1.0 | 6.0 | 0.00 | 0.00 | 0.00 | 66 | 1017.0 |
| 20260509082404 | 72 | 299 | 2.0 | 6.0 | 0.00 | 0.00 | 0.00 | 66 | 1016.9 |
| 20260509082306 | 72 | 299 | 2.0 | 6.0 | 0.00 | 0.00 | 0.00 | 66 | 1016.9 |
| 20260509082204 | 72 | 297 | 3.0 | 8.0 | 0.00 | 0.00 | 0.00 | 66 | 1017.1 |
| 20260509082104 | 72 | 297 | 3.0 | 8.0 | 0.00 | 0.00 | 0.00 | 66 | 1017.0 |
| 20260509082004 | 72 | 298 | 3.0 | 8.0 | 0.00 | 0.00 | 0.00 | 66 | 1017.1 |
| 20260509081904 | 71 | 300 | 3.0 | 8.0 | 0.00 | 0.00 | 0.00 | 66 | 1017.1 |
| 20260509081804 | 71 | 299 | 3.0 | 8.0 | 0.00 | 0.00 | 0.00 | 66 | 1017.1 |
| 20260509081704 | 71 | 300 | 3.0 | 8.0 | 0.00 | 0.00 | 0.00 | 66 | 1017.0 |
| 20260509081604 | 71 | 300 | 3.0 | 8.0 | 0.00 | 0.00 | 0.00 | 66 | 1017.1 |
| 20260509081504 | 71 | 297 | 3.0 | 8.0 | 0.00 | 0.00 | 0.00 | 66 | 1017.1 |
| 20260509081404 | 71 | 296 | 3.0 | 8.0 | 0.00 | 0.00 | 0.00 | 66 | 1017.1 |
| 20260509081304 | 71 | 295 | 3.0 | 8.0 | 0.00 | 0.00 | 0.00 | 66 | 1017.1 |
| 20260509081204 | 71 | 297 | 3.0 | 7.0 | 0.00 | 0.00 | 0.00 | 66 | 1017.1 |
| 20260509081104 | 71 | 297 | 3.0 | 10.0 | 0.00 | 0.00 | 0.00 | 66 | 1017.1 |
| 20260509081004 | 71 | 295 | 3.0 | 10.0 | 0.00 | 0.00 | 0.00 | 66 | 1017.1 |
| 20260509080904 | 71 | 294 | 3.0 | 10.0 | 0.00 | 0.00 | 0.00 | 66 | 1017.0 |
| 20260509080804 | 71 | 297 | 3.0 | 14.0 | 0.00 | 0.00 | 0.00 | 66 | 1017.0 |
| 20260509080704 | 71 | 297 | 3.0 | 14.0 | 0.00 | 0.00 | 0.00 | 66 | 1017.0 |
| 20260509080604 | 71 | 298 | 3.0 | 14.0 | 0.00 | 0.00 | 0.00 | 66 | 1017.1 |
| 20260509080504 | 71 | 298 | 3.0 | 14.0 | 0.00 | 0.00 | 0.00 | 66 | 1017.1 |
| 20260509080404 | 71 | 300 | 2.0 | 14.0 | 0.00 | 0.00 | 0.00 | 66 | 1017.1 |
| 20260509080304 | 71 | 303 | 2.0 | 14.0 | 0.00 | 0.00 | 0.00 | 66 | 1017.0 |
| 20260509080204 | 71 | 305 | 1.0 | 14.0 | 0.00 | 0.00 | 0.00 | 66 | 1017.0 |
| 20260509080104 | 71 | 315 | 1.0 | 14.0 | 0.00 | 0.00 | 0.00 | 66 | 1017.1 |
| 20260509080004 | 71 | 306 | 2.0 | 14.0 | 0.00 | 0.00 | 0.00 | 66 | 1016.9 |
| 20260509075904 | 71 | 299 | 2.0 | 14.0 | 0.00 | 0.00 | 0.00 | 66 | 1017.0 |
| 20260509075804 | 71 | 295 | 2.0 | 14.0 | 0.00 | 0.00 | 0.00 | 66 | 1017.1 |
| 20260509075704 | 71 | 295 | 2.0 | 14.0 | 0.00 | 0.00 | 0.00 | 66 | 1017.0 |
| 20260509075604 | 71 | 299 | 2.0 | 14.0 | 0.00 | 0.00 | 0.00 | 66 | 1017.0 |
| 20260509075504 | 71 | 299 | 3.0 | 14.0 | 0.00 | 0.00 | 0.00 | 65 | 1017.0 |
| 20260509075404 | 72 | 298 | 3.0 | 14.0 | 0.00 | 0.00 | 0.00 | 65 | 1017.0 |
| 20260509075306 | 72 | 298 | 3.0 | 14.0 | 0.00 | 0.00 | 0.00 | 65 | 1017.0 |
| 20260509075204 | 72 | 297 | 3.0 | 14.0 | 0.00 | 0.00 | 0.00 | 65 | 1017.0 |
| 20260509075104 | 72 | 296 | 3.0 | 14.0 | 0.00 | 0.00 | 0.00 | 65 | 1016.9 |
| 20260509075004 | 72 | 299 | 4.0 | 14.0 | 0.00 | 0.00 | 0.00 | 65 | 1016.9 |
| 20260509074904 | 72 | 301 | 3.0 | 14.0 | 0.00 | 0.00 | 0.00 | 65 | 1016.9 |
| 20260509074804 | 72 | 299 | 4.0 | 14.0 | 0.00 | 0.00 | 0.00 | 65 | 1016.9 |
| 20260509074704 | 72 | 298 | 4.0 | 14.0 | 0.00 | 0.00 | 0.00 | 65 | 1016.9 |
| 20260509074604 | 72 | 297 | 4.0 | 14.0 | 0.00 | 0.00 | 0.00 | 65 | 1016.9 |
| 20260509074504 | 72 | 295 | 4.0 | 14.0 | 0.00 | 0.00 | 0.00 | 65 | 1016.9 |
| 20260509074404 | 72 | 296 | 4.0 | 14.0 | 0.00 | 0.00 | 0.00 | 65 | 1016.9 |
| 20260509074304 | 72 | 296 | 4.0 | 14.0 | 0.00 | 0.00 | 0.00 | 64 | 1016.8 |
| 20260509074203 | 72 | 296 | 4.0 | 14.0 | 0.00 | 0.00 | 0.00 | 64 | 1016.8 |
| 20260509074104 | 72 | 295 | 4.0 | 14.0 | 0.00 | 0.00 | 0.00 | 65 | 1016.8 |
| 20260509074004 | 72 | 292 | 3.0 | 8.0 | 0.00 | 0.00 | 0.00 | 65 | 1016.8 |
| 20260509073903 | 72 | 292 | 3.0 | 8.0 | 0.00 | 0.00 | 0.00 | 65 | 1016.8 |
| 20260509073803 | 72 | 293 | 2.0 | 8.0 | 0.00 | 0.00 | 0.00 | 66 | 1016.8 |
| 20260509073704 | 72 | 294 | 2.0 | 8.0 | 0.00 | 0.00 | 0.00 | 66 | 1016.8 |
| 20260509073603 | 72 | 292 | 2.0 | 7.0 | 0.00 | 0.00 | 0.00 | 67 | 1016.7 |
| 20260509073503 | 72 | 297 | 1.0 | 7.0 | 0.00 | 0.00 | 0.00 | 67 | 1016.8 |
| 20260509073403 | 72 | 294 | 2.0 | 9.0 | 0.00 | 0.00 | 0.00 | 67 | 1016.9 |
| 20260509073303 | 71 | 293 | 2.0 | 9.0 | 0.00 | 0.00 | 0.00 | 68 | 1016.9 |
| 20260509073203 | 71 | 293 | 2.0 | 9.0 | 0.00 | 0.00 | 0.00 | 68 | 1016.9 |
| 20260509073103 | 71 | 295 | 2.0 | 9.0 | 0.00 | 0.00 | 0.00 | 67 | 1016.8 |
| 20260509073004 | 71 | 293 | 2.0 | 9.0 | 0.00 | 0.00 | 0.00 | 67 | 1016.9 |
| 20260509072903 | 71 | 291 | 2.0 | 9.0 | 0.00 | 0.00 | 0.00 | 67 | 1016.8 |
| 20260509072803 | 71 | 289 | 2.0 | 9.0 | 0.00 | 0.00 | 0.00 | 67 | 1016.8 |
| 20260509072703 | 71 | 291 | 3.0 | 9.0 | 0.00 | 0.00 | 0.00 | 67 | 1016.8 |
| 20260509072603 | 71 | 291 | 3.0 | 9.0 | 0.00 | 0.00 | 0.00 | 67 | 1016.7 |
| 20260509072503 | 71 | 292 | 3.0 | 9.0 | 0.00 | 0.00 | 0.00 | 67 | 1016.7 |
| 20260509072403 | 71 | 293 | 3.0 | 10.0 | 0.00 | 0.00 | 0.00 | 67 | 1016.8 |
| 20260509072306 | 71 | 293 | 3.0 | 10.0 | 0.00 | 0.00 | 0.00 | 67 | 1016.7 |
| 20260509072203 | 71 | 292 | 3.0 | 10.0 | 0.00 | 0.00 | 0.00 | 67 | 1016.7 |
| 20260509072103 | 71 | 292 | 3.0 | 10.0 | 0.00 | 0.00 | 0.00 | 67 | 1016.6 |
| 20260509072003 | 71 | 293 | 4.0 | 10.0 | 0.00 | 0.00 | 0.00 | 67 | 1016.7 |
| 20260509071903 | 71 | 294 | 3.0 | 10.0 | 0.00 | 0.00 | 0.00 | 67 | 1016.7 |
| 20260509071803 | 71 | 295 | 3.0 | 10.0 | 0.00 | 0.00 | 0.00 | 67 | 1016.7 |
| 20260509071703 | 71 | 294 | 3.0 | 10.0 | 0.00 | 0.00 | 0.00 | 67 | 1016.7 |
| 20260509071603 | 71 | 294 | 3.0 | 10.0 | 0.00 | 0.00 | 0.00 | 67 | 1016.7 |
| 20260509071504 | 71 | 294 | 4.0 | 10.0 | 0.00 | 0.00 | 0.00 | 67 | 1016.6 |
| 20260509071403 | 71 | 293 | 3.0 | 8.0 | 0.00 | 0.00 | 0.00 | 67 | 1016.6 |
| 20260509071303 | 71 | 293 | 4.0 | 8.0 | 0.00 | 0.00 | 0.00 | 67 | 1016.7 |
| 20260509071203 | 71 | 293 | 4.0 | 8.0 | 0.00 | 0.00 | 0.00 | 67 | 1016.7 |
| 20260509071103 | 71 | 295 | 3.0 | 8.0 | 0.00 | 0.00 | 0.00 | 67 | 1016.6 |
| 20260509071003 | 71 | 295 | 3.0 | 8.0 | 0.00 | 0.00 | 0.00 | 67 | 1016.6 |
| 20260509070903 | 71 | 295 | 4.0 | 8.0 | 0.00 | 0.00 | 0.00 | 67 | 1016.7 |
| 20260509070803 | 71 | 295 | 4.0 | 8.0 | 0.00 | 0.00 | 0.00 | 67 | 1016.7 |
| 20260509070703 | 71 | 297 | 4.0 | 9.0 | 0.00 | 0.00 | 0.00 | 67 | 1016.7 |
| 20260509070603 | 71 | 296 | 4.0 | 9.0 | 0.00 | 0.00 | 0.00 | 66 | 1016.8 |
| 20260509070503 | 71 | 296 | 3.0 | 9.0 | 0.00 | 0.00 | 0.00 | 66 | 1016.8 |
| 20260509070403 | 71 | 296 | 3.0 | 9.0 | 0.00 | 0.00 | 0.00 | 66 | 1016.8 |
| 20260509070303 | 71 | 296 | 3.0 | 9.0 | 0.00 | 0.00 | 0.00 | 66 | 1016.8 |
| 20260509070203 | 72 | 296 | 3.0 | 9.0 | 0.00 | 0.00 | 0.00 | 65 | 1016.8 |
| 20260509070003 | 72 | 296 | 3.0 | 11.0 | 0.00 | 0.00 | 0.00 | 65 | 1016.8 |
| 20260509065903 | 72 | 296 | 3.0 | 11.0 | 0.00 | 0.00 | 0.00 | 65 | 1016.8 |
| 20260509065803 | 72 | 296 | 3.0 | 11.0 | 0.00 | 0.00 | 0.00 | 65 | 1016.8 |
| 20260509065703 | 72 | 293 | 4.0 | 11.0 | 0.00 | 0.00 | 0.00 | 65 | 1016.7 |
| 20260509065603 | 73 | 293 | 4.0 | 11.0 | 0.00 | 0.00 | 0.00 | 65 | 1016.7 |
| 20260509065503 | 73 | 292 | 4.0 | 11.0 | 0.00 | 0.00 | 0.00 | 65 | 1016.7 |
| 20260509065403 | 73 | 293 | 4.0 | 11.0 | 0.00 | 0.00 | 0.00 | 66 | 1016.7 |
| 20260509065306 | 73 | 293 | 4.0 | 11.0 | 0.00 | 0.00 | 0.00 | 66 | 1016.7 |
| 20260509065203 | 73 | 293 | 4.0 | 11.0 | 0.00 | 0.00 | 0.00 | 66 | 1016.7 |
| 20260509065103 | 73 | 293 | 4.0 | 11.0 | 0.00 | 0.00 | 0.00 | 66 | 1016.7 |
| 20260509065003 | 72 | 290 | 4.0 | 9.0 | 0.00 | 0.00 | 0.00 | 67 | 1016.7 |
| 20260509064903 | 72 | 289 | 3.0 | 9.0 | 0.00 | 0.00 | 0.00 | 67 | 1016.8 |
| 20260509064803 | 72 | 289 | 3.0 | 9.0 | 0.00 | 0.00 | 0.00 | 68 | 1016.9 |
| 20260509064703 | 72 | 292 | 3.0 | 9.0 | 0.00 | 0.00 | 0.00 | 68 | 1016.9 |
| 20260509064603 | 72 | 292 | 3.0 | 9.0 | 0.00 | 0.00 | 0.00 | 69 | 1016.8 |
| 20260509064503 | 71 | 293 | 3.0 | 9.0 | 0.00 | 0.00 | 0.00 | 69 | 1016.8 |
| 20260509064403 | 71 | 292 | 3.0 | 9.0 | 0.00 | 0.00 | 0.00 | 70 | 1016.8 |
| 20260509064303 | 71 | 292 | 4.0 | 9.0 | 0.00 | 0.00 | 0.00 | 70 | 1016.8 |
| 20260509064203 | 71 | 292 | 4.0 | 10.0 | 0.00 | 0.00 | 0.00 | 70 | 1016.8 |
| 20260509064103 | 71 | 292 | 4.0 | 10.0 | 0.00 | 0.00 | 0.00 | 71 | 1016.8 |
| 20260509064003 | 70 | 292 | 4.0 | 10.0 | 0.00 | 0.00 | 0.00 | 71 | 1016.8 |
| 20260509063903 | 70 | 292 | 4.0 | 10.0 | 0.00 | 0.00 | 0.00 | 71 | 1016.8 |
| 20260509063803 | 70 | 292 | 5.0 | 10.0 | 0.00 | 0.00 | 0.00 | 71 | 1016.8 |
| 20260509063703 | 70 | 292 | 5.0 | 10.0 | 0.00 | 0.00 | 0.00 | 71 | 1016.8 |
| 20260509063603 | 69 | 292 | 4.0 | 10.0 | 0.00 | 0.00 | 0.00 | 71 | 1016.8 |
| 20260509063503 | 69 | 294 | 5.0 | 10.0 | 0.00 | 0.00 | 0.00 | 71 | 1016.8 |
| 20260509063403 | 69 | 294 | 5.0 | 10.0 | 0.00 | 0.00 | 0.00 | 71 | 1016.8 |
| 20260509063303 | 69 | 294 | 5.0 | 10.0 | 0.00 | 0.00 | 0.00 | 71 | 1017.0 |
| 20260509063203 | 69 | 294 | 4.0 | 9.0 | 0.00 | 0.00 | 0.00 | 71 | 1016.9 |
| 20260509063103 | 69 | 295 | 4.0 | 9.0 | 0.00 | 0.00 | 0.00 | 71 | 1017.0 |
| 20260509063003 | 69 | 295 | 4.0 | 9.0 | 0.00 | 0.00 | 0.00 | 71 | 1016.9 |
| 20260509062903 | 69 | 295 | 3.0 | 9.0 | 0.00 | 0.00 | 0.00 | 71 | 1017.0 |
| 20260509062803 | 69 | 296 | 3.0 | 9.0 | 0.00 | 0.00 | 0.00 | 71 | 1016.9 |
| 20260509062703 | 69 | 295 | 3.0 | 9.0 | 0.00 | 0.00 | 0.00 | 71 | 1016.9 |
| 20260509062603 | 69 | 296 | 3.0 | 9.0 | 0.00 | 0.00 | 0.00 | 71 | 1017.0 |
| 20260509062503 | 69 | 295 | 2.0 | 9.0 | 0.00 | 0.00 | 0.00 | 71 | 1016.8 |
| 20260509062403 | 69 | 296 | 2.0 | 8.0 | 0.00 | 0.00 | 0.00 | 71 | 1016.8 |
| 20260509062306 | 69 | 301 | 2.0 | 8.0 | 0.00 | 0.00 | 0.00 | 71 | 1016.9 |
| 20260509062203 | 69 | 302 | 2.0 | 9.0 | 0.00 | 0.00 | 0.00 | 71 | 1016.9 |
| 20260509062103 | 69 | 303 | 2.0 | 9.0 | 0.00 | 0.00 | 0.00 | 71 | 1016.8 |
| 20260509062003 | 69 | 302 | 2.0 | 9.0 | 0.00 | 0.00 | 0.00 | 71 | 1016.8 |
| 20260509061903 | 69 | 302 | 3.0 | 9.0 | 0.00 | 0.00 | 0.00 | 71 | 1016.8 |
| 20260509061803 | 69 | 302 | 3.0 | 9.0 | 0.00 | 0.00 | 0.00 | 72 | 1016.8 |
| 20260509061703 | 69 | 300 | 4.0 | 9.0 | 0.00 | 0.00 | 0.00 | 71 | 1016.8 |
| 20260509061603 | 69 | 298 | 4.0 | 9.0 | 0.00 | 0.00 | 0.00 | 72 | 1016.8 |
| 20260509061504 | 69 | 298 | 4.0 | 11.0 | 0.00 | 0.00 | 0.00 | 72 | 1016.8 |
| 20260509061403 | 69 | 298 | 5.0 | 11.0 | 0.00 | 0.00 | 0.00 | 72 | 1016.8 |
| 20260509061303 | 69 | 296 | 5.0 | 11.0 | 0.00 | 0.00 | 0.00 | 72 | 1016.8 |
| 20260509061203 | 69 | 296 | 4.0 | 11.0 | 0.00 | 0.00 | 0.00 | 72 | 1016.9 |
| 20260509061103 | 69 | 294 | 4.0 | 11.0 | 0.00 | 0.00 | 0.00 | 73 | 1017.0 |
| 20260509061003 | 69 | 294 | 4.0 | 11.0 | 0.00 | 0.00 | 0.00 | 73 | 1016.9 |
| 20260509060903 | 69 | 292 | 4.0 | 11.0 | 0.00 | 0.00 | 0.00 | 73 | 1016.9 |
| 20260509060803 | 69 | 292 | 4.0 | 11.0 | 0.00 | 0.00 | 0.00 | 73 | 1016.8 |
| 20260509060703 | 69 | 292 | 3.0 | 11.0 | 0.00 | 0.00 | 0.00 | 74 | 1016.8 |
| 20260509060603 | 69 | 293 | 3.0 | 11.0 | 0.00 | 0.00 | 0.00 | 74 | 1016.7 |
| 20260509060503 | 69 | 292 | 3.0 | 9.0 | 0.00 | 0.00 | 0.00 | 74 | 1016.7 |
| 20260509060403 | 69 | 292 | 2.0 | 9.0 | 0.00 | 0.00 | 0.00 | 75 | 1016.6 |
| 20260509060303 | 69 | 291 | 2.0 | 8.0 | 0.00 | 0.00 | 0.00 | 75 | 1016.6 |
| 20260509060203 | 69 | 290 | 2.0 | 8.0 | 0.00 | 0.00 | 0.00 | 76 | 1016.7 |
| 20260509060104 | 68 | 292 | 2.0 | 8.0 | 0.00 | 0.00 | 0.00 | 76 | 1016.7 |
| 20260509060004 | 68 | 292 | 2.0 | 6.0 | 0.00 | 0.00 | 0.00 | 76 | 1016.7 |
| 20260509055904 | 68 | 293 | 2.0 | 6.0 | 0.00 | 0.00 | 0.00 | 76 | 1016.8 |
| 20260509055804 | 68 | 292 | 2.0 | 6.0 | 0.00 | 0.00 | 0.00 | 76 | 1016.7 |
| 20260509055704 | 67 | 291 | 2.0 | 6.0 | 0.00 | 0.00 | 0.00 | 76 | 1016.5 |
| 20260509055604 | 67 | 291 | 2.0 | 6.0 | 0.00 | 0.00 | 0.00 | 76 | 1016.5 |
| 20260509055504 | 67 | 292 | 2.0 | 6.0 | 0.00 | 0.00 | 0.00 | 77 | 1016.5 |
| 20260509055404 | 67 | 292 | 2.0 | 6.0 | 0.00 | 0.00 | 0.00 | 77 | 1016.6 |
| 20260509055306 | 67 | 292 | 2.0 | 6.0 | 0.00 | 0.00 | 0.00 | 77 | 1016.6 |
| 20260509055204 | 67 | 292 | 1.0 | 6.0 | 0.00 | 0.00 | 0.00 | 77 | 1016.7 |
| 20260509055104 | 67 | 292 | 1.0 | 6.0 | 0.00 | 0.00 | 0.00 | 77 | 1016.6 |
| 20260509055004 | 67 | 294 | 1.0 | 6.0 | 0.00 | 0.00 | 0.00 | 77 | 1016.6 |
| 20260509054904 | 67 | 293 | 1.0 | 6.0 | 0.00 | 0.00 | 0.00 | 77 | 1016.7 |
| 20260509054804 | 67 | 293 | 1.0 | 5.0 | 0.00 | 0.00 | 0.00 | 77 | 1016.6 |
| 20260509054704 | 67 | 294 | 1.0 | 5.0 | 0.00 | 0.00 | 0.00 | 77 | 1016.6 |
| 20260509054604 | 67 | 295 | 1.0 | 5.0 | 0.00 | 0.00 | 0.00 | 77 | 1016.7 |
| 20260509054504 | 67 | 290 | 1.0 | 5.0 | 0.00 | 0.00 | 0.00 | 77 | 1016.7 |
| 20260509054404 | 67 | 290 | 1.0 | 5.0 | 0.00 | 0.00 | 0.00 | 77 | 1016.6 |
| 20260509054304 | 67 | 292 | 1.0 | 5.0 | 0.00 | 0.00 | 0.00 | 77 | 1016.5 |
| 20260509054204 | 67 | 292 | 1.0 | 5.0 | 0.00 | 0.00 | 0.00 | 77 | 1016.6 |
| 20260509054104 | 67 | 295 | 1.0 | 7.0 | 0.00 | 0.00 | 0.00 | 77 | 1016.5 |
| 20260509054004 | 67 | 294 | 1.0 | 7.0 | 0.00 | 0.00 | 0.00 | 77 | 1016.6 |
| 20260509053904 | 67 | 294 | 1.0 | 7.0 | 0.00 | 0.00 | 0.00 | 77 | 1016.6 |
| 20260509053804 | 67 | 292 | 1.0 | 7.0 | 0.00 | 0.00 | 0.00 | 77 | 1016.6 |
| 20260509053704 | 67 | 292 | 1.0 | 7.0 | 0.00 | 0.00 | 0.00 | 77 | 1016.5 |
| 20260509053604 | 67 | 291 | 1.0 | 7.0 | 0.00 | 0.00 | 0.00 | 77 | 1016.6 |
| 20260509053504 | 67 | 292 | 2.0 | 7.0 | 0.00 | 0.00 | 0.00 | 77 | 1016.6 |
| 20260509053404 | 67 | 292 | 2.0 | 7.0 | 0.00 | 0.00 | 0.00 | 77 | 1016.5 |
| 20260509053304 | 66 | 296 | 2.0 | 10.0 | 0.00 | 0.00 | 0.00 | 77 | 1016.5 |
| 20260509053204 | 66 | 295 | 2.0 | 10.0 | 0.00 | 0.00 | 0.00 | 77 | 1016.5 |
| 20260509053104 | 67 | 295 | 2.0 | 10.0 | 0.00 | 0.00 | 0.00 | 77 | 1016.5 |
| 20260509053004 | 67 | 296 | 2.0 | 10.0 | 0.00 | 0.00 | 0.00 | 77 | 1016.6 |
| 20260509052904 | 67 | 296 | 2.0 | 10.0 | 0.00 | 0.00 | 0.00 | 77 | 1016.5 |
| 20260509052804 | 67 | 297 | 2.0 | 10.0 | 0.00 | 0.00 | 0.00 | 77 | 1016.4 |
| 20260509052704 | 67 | 297 | 2.0 | 10.0 | 0.00 | 0.00 | 0.00 | 77 | 1016.5 |
| 20260509052604 | 67 | 297 | 2.0 | 10.0 | 0.00 | 0.00 | 0.00 | 77 | 1016.5 |
| 20260509052504 | 67 | 298 | 2.0 | 10.0 | 0.00 | 0.00 | 0.00 | 77 | 1016.5 |
| 20260509052404 | 67 | 298 | 2.0 | 10.0 | 0.00 | 0.00 | 0.00 | 77 | 1016.4 |
| 20260509052307 | 67 | 295 | 2.0 | 6.0 | 0.00 | 0.00 | 0.00 | 77 | 1016.4 |
| 20260509052204 | 67 | 293 | 1.0 | 5.0 | 0.00 | 0.00 | 0.00 | 77 | 1016.3 |
| 20260509052104 | 67 | 293 | 2.0 | 5.0 | 0.00 | 0.00 | 0.00 | 77 | 1016.4 |
| 20260509052003 | 67 | 289 | 2.0 | 9.0 | 0.00 | 0.00 | 0.00 | 77 | 1016.4 |
| 20260509051903 | 67 | 287 | 2.0 | 9.0 | 0.00 | 0.00 | 0.00 | 78 | 1016.3 |